Wetterdaten: Dienstag, 30.05.2017
Datum Zeit Temp. Aussen Temp. o. S. +5cm Feuchte Auss BlattFeu 1 Luftdruck Regen Sonnenschein Regendauer Solar Windben Empfang
30.05.2017 00:00 24,0 C 22,8 C 21,1 C 80 % 0 lf 1010,9 hPa 0,0 l/m 0 min 0 min 0 W/m 6,3 km/h (2 Bft) 93,62 %
30.05.2017 00:02 24,0 C 22,8 C 21,1 C 80 % 0 lf 1011,0 hPa 0,0 l/m 0 min 0 min 0 W/m 6,3 km/h (2 Bft) 94,29 %
30.05.2017 00:04 23,9 C 22,8 C 21,1 C 80 % 0 lf 1011,0 hPa 0,0 l/m 0 min 0 min 0 W/m 10,5 km/h (2 Bft) 97,87 %
30.05.2017 00:06 23,9 C 22,8 C 21,1 C 80 % 0 lf 1011,0 hPa 0,0 l/m 0 min 0 min 0 W/m 12,6 km/h (3 Bft) 93,48 %
30.05.2017 00:10 23,8 C 22,8 C 21,1 C 80 % 0 lf 1011,0 hPa 0,0 l/m 0 min 0 min 0 W/m 14,6 km/h (3 Bft) 93,68 %
30.05.2017 00:12 23,8 C 22,8 C 21,1 C 80 % 0 lf 1011,0 hPa 0,0 l/m 0 min 0 min 0 W/m 10,5 km/h (2 Bft) 93,62 %
30.05.2017 00:14 23,7 C 22,8 C 21,1 C 80 % 0 lf 1010,9 hPa 0,0 l/m 0 min 0 min 0 W/m 10,5 km/h (2 Bft) 93,62 %
30.05.2017 00:16 23,7 C 22,8 C 21,1 C 80 % 0 lf 1011,0 hPa 0,0 l/m 0 min 0 min 0 W/m 6,3 km/h (2 Bft) 97,87 %
30.05.2017 00:18 23,7 C 22,8 C 21,1 C 79 % 0 lf 1010,9 hPa 0,0 l/m 0 min 0 min 0 W/m 10,5 km/h (2 Bft) 97,83 %
30.05.2017 00:20 23,6 C 22,8 C 21,1 C 79 % 0 lf 1011,0 hPa 0,0 l/m 0 min 0 min 0 W/m 8,4 km/h (2 Bft) 89,36 %
30.05.2017 00:22 23,6 C 22,8 C 21,1 C 79 % 0 lf 1010,9 hPa 0,0 l/m 0 min 0 min 0 W/m 12,6 km/h (3 Bft) 94,74 %
30.05.2017 00:24 23,6 C 22,8 C 21,1 C 79 % 0 lf 1010,9 hPa 0,0 l/m 0 min 0 min 0 W/m 8,4 km/h (2 Bft) 93,62 %
30.05.2017 00:26 23,5 C 22,8 C 21,1 C 79 % 0 lf 1011,0 hPa 0,0 l/m 0 min 0 min 0 W/m 8,4 km/h (2 Bft) 95,65 %
30.05.2017 00:28 23,5 C 22,8 C 21,1 C 79 % 0 lf 1011,0 hPa 0,0 l/m 0 min 0 min 0 W/m 8,4 km/h (2 Bft) 91,49 %
30.05.2017 00:30 23,5 C 22,8 C 21,1 C 79 % 0 lf 1011,0 hPa 0,0 l/m 0 min 0 min 0 W/m 12,6 km/h (3 Bft) 94,29 %
30.05.2017 00:32 23,4 C 22,8 C 21,1 C 79 % 0 lf 1011,0 hPa 0,0 l/m 0 min 0 min 0 W/m 10,5 km/h (2 Bft) 94,92 %
30.05.2017 00:34 23,4 C 22,8 C 21,1 C 79 % 0 lf 1011,0 hPa 0,0 l/m 0 min 0 min 0 W/m 12,6 km/h (3 Bft) 93,62 %
30.05.2017 00:36 23,3 C 22,8 C 21,1 C 79 % 0 lf 1011,0 hPa 0,0 l/m 0 min 0 min 0 W/m 12,6 km/h (3 Bft) 91,49 %
30.05.2017 00:38 23,3 C 22,8 C 21,1 C 79 % 0 lf 1011,0 hPa 0,0 l/m 0 min 0 min 0 W/m 10,5 km/h (2 Bft) 95,65 %
30.05.2017 00:40 23,3 C 22,8 C 21,1 C 79 % 0 lf 1010,9 hPa 0,0 l/m 0 min 0 min 0 W/m 10,5 km/h (2 Bft) 97,22 %
30.05.2017 00:42 23,3 C 22,8 C 21,1 C 79 % 0 lf 1010,9 hPa 0,0 l/m 0 min 0 min 0 W/m 8,4 km/h (2 Bft) 91,38 %
30.05.2017 00:44 23,2 C 22,8 C 21,1 C 79 % 0 lf 1011,0 hPa 0,0 l/m 0 min 0 min 0 W/m 8,4 km/h (2 Bft) 95,74 %
30.05.2017 00:46 23,2 C 22,2 C 20,6 C 79 % 0 lf 1011,0 hPa 0,0 l/m 0 min 0 min 0 W/m 6,3 km/h (2 Bft) 97,87 %
30.05.2017 00:48 23,2 C 22,2 C 20,6 C 79 % 0 lf 1011,0 hPa 0,0 l/m 0 min 0 min 0 W/m 10,5 km/h (2 Bft) 95,74 %
30.05.2017 00:50 23,2 C 22,2 C 20,6 C 79 % 0 lf 1011,0 hPa 0,0 l/m 0 min 0 min 0 W/m 8,4 km/h (2 Bft) 91,30 %
30.05.2017 00:52 23,2 C 22,2 C 20,6 C 79 % 0 lf 1011,0 hPa 0,0 l/m 0 min 0 min 0 W/m 8,4 km/h (2 Bft) 97,87 %
30.05.2017 00:54 23,2 C 22,2 C 20,6 C 79 % 0 lf 1010,9 hPa 0,0 l/m 0 min 0 min 0 W/m 8,4 km/h (2 Bft) 97,14 %
30.05.2017 00:56 23,1 C 22,2 C 20,6 C 79 % 0 lf 1010,8 hPa 0,0 l/m 0 min 0 min 0 W/m 6,3 km/h (2 Bft) 98,08 %
30.05.2017 00:58 23,1 C 22,2 C 20,6 C 79 % 0 lf 1010,8 hPa 0,0 l/m 0 min 0 min 0 W/m 10,5 km/h (2 Bft) 95,65 %
30.05.2017 01:00 23,1 C 22,2 C 20,6 C 79 % 0 lf 1010,8 hPa 0,0 l/m 0 min 0 min 0 W/m 6,3 km/h (2 Bft) 97,73 %
30.05.2017 01:02 23,1 C 22,2 C 20,0 C 79 % 0 lf 1010,9 hPa 0,0 l/m 0 min 0 min 0 W/m 6,3 km/h (2 Bft) 95,74 %
30.05.2017 01:04 23,0 C 21,7 C 20,0 C 79 % 0 lf 1010,8 hPa 0,0 l/m 0 min 0 min 0 W/m 8,4 km/h (2 Bft) 97,87 %
30.05.2017 01:06 23,0 C 21,7 C 20,0 C 79 % 0 lf 1010,9 hPa 0,0 l/m 0 min 0 min 0 W/m 8,4 km/h (2 Bft) 97,83 %
30.05.2017 01:08 22,9 C 21,7 C 20,0 C 79 % 0 lf 1010,9 hPa 0,0 l/m 0 min 0 min 0 W/m 10,5 km/h (2 Bft) 95,74 %
30.05.2017 01:10 22,9 C 21,7 C 20,0 C 79 % 0 lf 1010,8 hPa 0,0 l/m 0 min 0 min 0 W/m 8,4 km/h (2 Bft) 95,74 %
30.05.2017 01:12 22,9 C 21,7 C 20,0 C 79 % 0 lf 1010,7 hPa 0,0 l/m 0 min 0 min 0 W/m 8,4 km/h (2 Bft) 93,62 %
30.05.2017 01:14 22,8 C 21,7 C 20,0 C 80 % 0 lf 1010,7 hPa 0,0 l/m 0 min 0 min 0 W/m 8,4 km/h (2 Bft) 95,74 %
30.05.2017 01:16 22,8 C 21,7 C 20,0 C 80 % 0 lf 1010,7 hPa 0,0 l/m 0 min 0 min 0 W/m 8,4 km/h (2 Bft) 93,48 %
30.05.2017 01:18 22,8 C 21,7 C 20,0 C 80 % 0 lf 1010,7 hPa 0,0 l/m 0 min 0 min 0 W/m 8,4 km/h (2 Bft) 97,87 %
30.05.2017 01:20 22,7 C 21,7 C 20,0 C 80 % 0 lf 1010,8 hPa 0,0 l/m 0 min 0 min 0 W/m 8,4 km/h (2 Bft) 95,74 %
30.05.2017 01:22 22,7 C 21,7 C 19,4 C 80 % 0 lf 1010,8 hPa 0,0 l/m 0 min 0 min 0 W/m 8,4 km/h (2 Bft) 94,00 %
30.05.2017 01:24 22,7 C 21,1 C 19,4 C 80 % 0 lf 1010,8 hPa 0,0 l/m 0 min 0 min 0 W/m 4,2 km/h (1 Bft) 95,74 %
30.05.2017 01:26 22,6 C 21,1 C 19,4 C 80 % 0 lf 1010,7 hPa 0,0 l/m 0 min 0 min 0 W/m 6,3 km/h (2 Bft) 95,74 %
30.05.2017 01:28 22,6 C 21,1 C 19,4 C 80 % 0 lf 1010,7 hPa 0,0 l/m 0 min 0 min 0 W/m 6,3 km/h (2 Bft) 97,83 %
30.05.2017 01:30 22,6 C 21,1 C 19,4 C 80 % 0 lf 1010,8 hPa 0,0 l/m 0 min 0 min 0 W/m 4,2 km/h (1 Bft) 97,87 %
30.05.2017 01:32 22,5 C 21,1 C 19,4 C 80 % 0 lf 1010,7 hPa 0,0 l/m 0 min 0 min 0 W/m 4,2 km/h (1 Bft) 93,62 %
30.05.2017 01:34 22,5 C 21,1 C 19,4 C 80 % 0 lf 1010,7 hPa 0,0 l/m 0 min 0 min 0 W/m 6,3 km/h (2 Bft) 95,74 %
30.05.2017 01:36 22,4 C 21,1 C 19,4 C 80 % 0 lf 1010,7 hPa 0,0 l/m 0 min 0 min 0 W/m 10,5 km/h (2 Bft) 95,74 %
30.05.2017 01:38 22,4 C 21,1 C 19,4 C 80 % 0 lf 1010,7 hPa 0,0 l/m 0 min 0 min 0 W/m 8,4 km/h (2 Bft) 97,83 %
30.05.2017 01:40 22,4 C 21,1 C 19,4 C 80 % 0 lf 1010,6 hPa 0,0 l/m 0 min 0 min 0 W/m 6,3 km/h (2 Bft) 97,87 %
30.05.2017 01:42 22,3 C 21,1 C 18,9 C 80 % 0 lf 1010,5 hPa 0,0 l/m 0 min 0 min 0 W/m 6,3 km/h (2 Bft) 95,74 %
30.05.2017 01:44 22,3 C 21,1 C 18,9 C 81 % 0 lf 1010,5 hPa 0,0 l/m 0 min 0 min 0 W/m 10,5 km/h (2 Bft) 95,83 %
30.05.2017 01:46 22,3 C 21,1 C 18,9 C 81 % 0 lf 1010,5 hPa 0,0 l/m 0 min 0 min 0 W/m 8,4 km/h (2 Bft) 97,83 %
30.05.2017 01:48 22,2 C 21,1 C 19,4 C 81 % 0 lf 1010,5 hPa 0,0 l/m 0 min 0 min 0 W/m 6,3 km/h (2 Bft) 97,87 %
30.05.2017 01:50 22,2 C 21,1 C 19,4 C 81 % 0 lf 1010,6 hPa 0,0 l/m 0 min 0 min 0 W/m 6,3 km/h (2 Bft) 97,87 %
30.05.2017 01:52 22,2 C 21,1 C 18,9 C 81 % 0 lf 1010,6 hPa 0,0 l/m 0 min 0 min 0 W/m 6,3 km/h (2 Bft) 95,74 %
30.05.2017 01:54 22,1 C 21,1 C 19,4 C 81 % 0 lf 1010,6 hPa 0,0 l/m 0 min 0 min 0 W/m 4,2 km/h (1 Bft) 97,87 %
30.05.2017 01:56 22,1 C 21,1 C 19,4 C 81 % 0 lf 1010,6 hPa 0,0 l/m 0 min 0 min 0 W/m 4,2 km/h (1 Bft) 97,87 %
30.05.2017 01:58 22,1 C 21,1 C 19,4 C 81 % 0 lf 1010,6 hPa 0,0 l/m 0 min 0 min 0 W/m 2,1 km/h (1 Bft) 97,83 %
30.05.2017 02:00 22,0 C 21,1 C 19,4 C 81 % 0 lf 1010,6 hPa 0,0 l/m 0 min 0 min 0 W/m 0,0 km/h (0 Bft) 91,49 %
30.05.2017 02:02 22,0 C 21,1 C 19,4 C 81 % 0 lf 1010,6 hPa 0,0 l/m 0 min 0 min 0 W/m 6,3 km/h (2 Bft) 97,87 %
30.05.2017 02:04 21,9 C 21,1 C 19,4 C 81 % 0 lf 1010,7 hPa 0,0 l/m 0 min 0 min 0 W/m 10,5 km/h (2 Bft) 97,87 %
30.05.2017 02:06 21,9 C 21,1 C 19,4 C 82 % 0 lf 1010,8 hPa 0,0 l/m 0 min 0 min 0 W/m 8,4 km/h (2 Bft) 91,49 %
30.05.2017 02:08 21,9 C 21,1 C 20,0 C 82 % 0 lf 1010,9 hPa 0,0 l/m 0 min 0 min 0 W/m 8,4 km/h (2 Bft) 100,00 %
30.05.2017 02:10 21,8 C 21,1 C 20,0 C 82 % 0 lf 1010,9 hPa 0,0 l/m 0 min 0 min 0 W/m 8,4 km/h (2 Bft) 100,00 %
30.05.2017 02:12 21,8 C 21,1 C 20,0 C 82 % 0 lf 1010,9 hPa 0,0 l/m 0 min 0 min 0 W/m 10,5 km/h (2 Bft) 95,74 %
30.05.2017 02:14 21,8 C 21,1 C 20,0 C 83 % 0 lf 1011,0 hPa 0,0 l/m 0 min 0 min 0 W/m 8,4 km/h (2 Bft) 95,74 %
30.05.2017 02:16 21,8 C 21,1 C 20,0 C 82 % 0 lf 1010,8 hPa 0,0 l/m 0 min 0 min 0 W/m 8,4 km/h (2 Bft) 95,74 %
30.05.2017 02:18 21,7 C 21,1 C 19,4 C 82 % 0 lf 1010,8 hPa 0,0 l/m 0 min 0 min 0 W/m 12,6 km/h (3 Bft) 95,74 %
30.05.2017 02:20 21,7 C 21,1 C 19,4 C 82 % 0 lf 1010,8 hPa 0,0 l/m 0 min 0 min 0 W/m 8,4 km/h (2 Bft) 93,48 %
30.05.2017 02:22 21,7 C 21,1 C 19,4 C 82 % 0 lf 1010,8 hPa 0,0 l/m 0 min 0 min 0 W/m 8,4 km/h (2 Bft) 95,74 %
30.05.2017 02:24 21,7 C 21,1 C 19,4 C 83 % 0 lf 1010,8 hPa 0,0 l/m 0 min 0 min 0 W/m 10,5 km/h (2 Bft) 97,87 %
30.05.2017 02:26 21,6 C 21,1 C 19,4 C 83 % 0 lf 1010,8 hPa 0,0 l/m 0 min 0 min 0 W/m 8,4 km/h (2 Bft) 93,62 %
30.05.2017 02:28 21,6 C 21,1 C 19,4 C 83 % 0 lf 1010,7 hPa 0,0 l/m 0 min 0 min 0 W/m 8,4 km/h (2 Bft) 95,74 %
30.05.2017 02:30 21,6 C 21,1 C 19,4 C 83 % 0 lf 1010,7 hPa 0,0 l/m 0 min 0 min 0 W/m 8,4 km/h (2 Bft) 95,74 %
30.05.2017 02:32 21,6 C 21,1 C 19,4 C 83 % 0 lf 1010,7 hPa 0,0 l/m 0 min 0 min 0 W/m 8,4 km/h (2 Bft) 93,48 %
30.05.2017 02:34 21,6 C 20,6 C 19,4 C 83 % 0 lf 1010,7 hPa 0,0 l/m 0 min 0 min 0 W/m 8,4 km/h (2 Bft) 95,74 %
30.05.2017 02:36 21,5 C 20,6 C 18,9 C 83 % 0 lf 1010,7 hPa 0,0 l/m 0 min 0 min 0 W/m 10,5 km/h (2 Bft) 95,74 %
30.05.2017 02:38 21,5 C 20,6 C 18,9 C 83 % 0 lf 1010,7 hPa 0,0 l/m 0 min 0 min 0 W/m 8,4 km/h (2 Bft) 97,87 %
30.05.2017 02:40 21,4 C 20,6 C 18,9 C 83 % 0 lf 1010,7 hPa 0,0 l/m 0 min 0 min 0 W/m 8,4 km/h (2 Bft) 95,74 %
30.05.2017 02:42 21,4 C 20,6 C 18,9 C 83 % 0 lf 1010,7 hPa 0,0 l/m 0 min 0 min 0 W/m 10,5 km/h (2 Bft) 93,62 %
30.05.2017 02:44 21,4 C 20,6 C 18,9 C 83 % 0 lf 1010,7 hPa 0,0 l/m 0 min 0 min 0 W/m 8,4 km/h (2 Bft) 93,48 %
30.05.2017 02:46 21,3 C 20,6 C 18,9 C 83 % 0 lf 1010,7 hPa 0,0 l/m 0 min 0 min 0 W/m 8,4 km/h (2 Bft) 97,87 %
30.05.2017 02:48 21,3 C 20,6 C 18,9 C 83 % 0 lf 1010,8 hPa 0,0 l/m 0 min 0 min 0 W/m 8,4 km/h (2 Bft) 95,74 %
30.05.2017 02:50 21,3 C 20,6 C 18,9 C 83 % 0 lf 1010,7 hPa 0,0 l/m 0 min 0 min 0 W/m 10,5 km/h (2 Bft) 95,74 %
30.05.2017 02:52 21,2 C 20,6 C 18,9 C 83 % 0 lf 1010,8 hPa 0,0 l/m 0 min 0 min 0 W/m 10,5 km/h (2 Bft) 97,87 %
30.05.2017 02:54 21,2 C 20,6 C 18,9 C 84 % 0 lf 1010,8 hPa 0,0 l/m 0 min 0 min 0 W/m 10,5 km/h (2 Bft) 95,74 %
30.05.2017 02:56 21,2 C 20,6 C 18,9 C 84 % 0 lf 1010,9 hPa 0,0 l/m 0 min 0 min 0 W/m 12,6 km/h (3 Bft) 95,65 %
30.05.2017 02:58 21,1 C 20,6 C 18,9 C 84 % 0 lf 1010,9 hPa 0,0 l/m 0 min 0 min 0 W/m 6,3 km/h (2 Bft) 97,87 %
30.05.2017 03:00 21,1 C 20,6 C 18,9 C 84 % 0 lf 1010,9 hPa 0,0 l/m 0 min 0 min 0 W/m 10,5 km/h (2 Bft) 93,62 %
30.05.2017 03:02 21,1 C 20,6 C 18,9 C 84 % 0 lf 1010,9 hPa 0,0 l/m 0 min 0 min 0 W/m 10,5 km/h (2 Bft) 97,67 %
30.05.2017 03:04 21,0 C 20,6 C 19,4 C 84 % 0 lf 1010,9 hPa 0,0 l/m 0 min 0 min 0 W/m 14,6 km/h (3 Bft) 100,00 %
30.05.2017 03:06 21,0 C 20,6 C 19,4 C 84 % 0 lf 1010,9 hPa 0,0 l/m 0 min 0 min 0 W/m 10,5 km/h (2 Bft) 100,00 %
30.05.2017 03:08 21,0 C 20,6 C 19,4 C 84 % 0 lf 1011,0 hPa 0,0 l/m 0 min 0 min 0 W/m 10,5 km/h (2 Bft) 95,74 %
30.05.2017 03:10 21,0 C 20,6 C 18,9 C 85 % 0 lf 1011,0 hPa 0,0 l/m 0 min 0 min 0 W/m 8,4 km/h (2 Bft) 97,87 %
30.05.2017 03:12 21,0 C 20,6 C 18,9 C 85 % 0 lf 1011,0 hPa 0,0 l/m 0 min 0 min 0 W/m 10,5 km/h (2 Bft) 95,74 %
30.05.2017 03:14 21,0 C 20,6 C 18,9 C 85 % 0 lf 1011,0 hPa 0,0 l/m 0 min 0 min 0 W/m 8,4 km/h (2 Bft) 97,83 %
30.05.2017 03:16 20,9 C 20,6 C 18,9 C 85 % 0 lf 1011,1 hPa 0,0 l/m 0 min 0 min 0 W/m 12,6 km/h (3 Bft) 100,00 %
30.05.2017 03:18 20,9 C 20,6 C 18,9 C 85 % 0 lf 1011,2 hPa 0,0 l/m 0 min 0 min 0 W/m 10,5 km/h (2 Bft) 100,00 %
30.05.2017 03:20 20,9 C 20,6 C 18,9 C 85 % 0 lf 1011,2 hPa 0,0 l/m 0 min 0 min 0 W/m 12,6 km/h (3 Bft) 100,00 %
30.05.2017 03:22 20,9 C 20,6 C 19,4 C 85 % 0 lf 1011,2 hPa 0,0 l/m 0 min 0 min 0 W/m 14,6 km/h (3 Bft) 95,74 %
30.05.2017 03:24 20,9 C 20,6 C 19,4 C 85 % 0 lf 1011,1 hPa 0,0 l/m 0 min 0 min 0 W/m 12,6 km/h (3 Bft) 100,00 %
30.05.2017 03:26 20,9 C 20,6 C 19,4 C 85 % 0 lf 1011,1 hPa 0,0 l/m 0 min 0 min 0 W/m 12,6 km/h (3 Bft) 97,83 %
30.05.2017 03:28 20,8 C 20,6 C 19,4 C 85 % 0 lf 1011,1 hPa 0,0 l/m 0 min 0 min 0 W/m 12,6 km/h (3 Bft) 97,87 %
30.05.2017 03:30 20,8 C 20,6 C 19,4 C 85 % 0 lf 1011,2 hPa 0,0 l/m 0 min 0 min 0 W/m 12,6 km/h (3 Bft) 97,87 %
30.05.2017 03:32 20,8 C 20,6 C 19,4 C 85 % 0 lf 1011,1 hPa 0,0 l/m 0 min 0 min 0 W/m 6,3 km/h (2 Bft) 95,74 %
30.05.2017 03:34 20,8 C 20,6 C 19,4 C 85 % 0 lf 1011,1 hPa 0,0 l/m 0 min 0 min 0 W/m 14,6 km/h (3 Bft) 100,00 %
30.05.2017 03:36 20,8 C 20,6 C 19,4 C 85 % 0 lf 1011,1 hPa 0,0 l/m 0 min 0 min 0 W/m 10,5 km/h (2 Bft) 97,83 %
30.05.2017 03:38 20,8 C 20,6 C 19,4 C 85 % 0 lf 1011,2 hPa 0,0 l/m 0 min 0 min 0 W/m 8,4 km/h (2 Bft) 100,00 %
30.05.2017 03:40 20,8 C 20,6 C 19,4 C 85 % 0 lf 1011,2 hPa 0,0 l/m 0 min 0 min 0 W/m 8,4 km/h (2 Bft) 95,74 %
30.05.2017 03:42 20,8 C 20,6 C 19,4 C 85 % 0 lf 1011,2 hPa 0,0 l/m 0 min 0 min 0 W/m 8,4 km/h (2 Bft) 97,87 %
30.05.2017 03:44 20,8 C 20,6 C 19,4 C 85 % 0 lf 1011,2 hPa 0,0 l/m 0 min 0 min 0 W/m 8,4 km/h (2 Bft) 97,87 %
30.05.2017 03:46 20,8 C 20,6 C 19,4 C 85 % 0 lf 1011,2 hPa 0,0 l/m 0 min 0 min 0 W/m 12,6 km/h (3 Bft) 100,00 %
30.05.2017 03:48 20,8 C 20,6 C 19,4 C 85 % 0 lf 1011,3 hPa 0,0 l/m 0 min 0 min 0 W/m 14,6 km/h (3 Bft) 100,00 %
30.05.2017 03:50 20,8 C 20,6 C 19,4 C 85 % 0 lf 1011,3 hPa 0,0 l/m 0 min 0 min 0 W/m 8,4 km/h (2 Bft) 97,83 %
30.05.2017 03:52 20,8 C 20,6 C 19,4 C 85 % 0 lf 1011,3 hPa 0,0 l/m 0 min 0 min 0 W/m 8,4 km/h (2 Bft) 93,62 %
30.05.2017 03:54 20,8 C 20,6 C 19,4 C 85 % 0 lf 1011,3 hPa 0,0 l/m 0 min 0 min 0 W/m 6,3 km/h (2 Bft) 95,74 %
30.05.2017 03:56 20,8 C 20,6 C 19,4 C 85 % 0 lf 1011,3 hPa 0,0 l/m 0 min 0 min 0 W/m 8,4 km/h (2 Bft) 94,00 %
30.05.2017 03:58 20,8 C 20,6 C 19,4 C 84 % 0 lf 1011,3 hPa 0,0 l/m 0 min 0 min 0 W/m 8,4 km/h (2 Bft) 97,87 %
30.05.2017 04:00 20,8 C 20,6 C 19,4 C 84 % 0 lf 1011,2 hPa 0,0 l/m 0 min 0 min 0 W/m 8,4 km/h (2 Bft) 97,83 %
30.05.2017 04:02 20,8 C 20,6 C 19,4 C 84 % 0 lf 1011,3 hPa 0,0 l/m 0 min 0 min 0 W/m 8,4 km/h (2 Bft) 90,00 %
30.05.2017 04:04 20,8 C 20,6 C 19,4 C 84 % 0 lf 1011,3 hPa 0,0 l/m 0 min 0 min 0 W/m 10,5 km/h (2 Bft) 93,62 %
30.05.2017 04:06 20,8 C 20,6 C 19,4 C 84 % 0 lf 1011,3 hPa 0,0 l/m 0 min 0 min 0 W/m 12,6 km/h (3 Bft) 93,62 %
30.05.2017 04:08 20,8 C 20,6 C 19,4 C 84 % 0 lf 1011,3 hPa 0,0 l/m 0 min 0 min 0 W/m 10,5 km/h (2 Bft) 100,00 %
30.05.2017 04:10 20,8 C 20,6 C 19,4 C 84 % 0 lf 1011,2 hPa 0,0 l/m 0 min 0 min 0 W/m 20,9 km/h (4 Bft) 97,87 %
30.05.2017 04:12 20,8 C 20,6 C 19,4 C 84 % 0 lf 1011,2 hPa 0,0 l/m 0 min 0 min 0 W/m 8,4 km/h (2 Bft) 93,62 %
30.05.2017 04:14 20,8 C 20,6 C 19,4 C 84 % 0 lf 1011,2 hPa 0,0 l/m 0 min 0 min 0 W/m 10,5 km/h (2 Bft) 89,36 %
30.05.2017 04:16 20,8 C 20,6 C 19,4 C 84 % 0 lf 1011,2 hPa 0,0 l/m 0 min 0 min 0 W/m 8,4 km/h (2 Bft) 93,62 %
30.05.2017 04:18 20,8 C 20,6 C 19,4 C 84 % 0 lf 1011,1 hPa 0,0 l/m 0 min 0 min 0 W/m 10,5 km/h (2 Bft) 93,48 %
30.05.2017 04:20 20,8 C 20,6 C 19,4 C 84 % 0 lf 1011,1 hPa 0,0 l/m 0 min 0 min 0 W/m 8,4 km/h (2 Bft) 93,62 %
30.05.2017 04:22 20,8 C 20,6 C 19,4 C 84 % 0 lf 1011,1 hPa 0,0 l/m 0 min 0 min 0 W/m 4,2 km/h (1 Bft) 91,49 %
30.05.2017 04:24 20,8 C 20,6 C 18,9 C 84 % 0 lf 1011,1 hPa 0,0 l/m 0 min 0 min 0 W/m 4,2 km/h (1 Bft) 90,70 %
30.05.2017 04:26 20,8 C 20,6 C 18,9 C 84 % 0 lf 1011,2 hPa 0,0 l/m 0 min 0 min 0 W/m 10,5 km/h (2 Bft) 93,62 %
30.05.2017 04:28 20,7 C 20,0 C 18,9 C 84 % 0 lf 1011,2 hPa 0,0 l/m 0 min 0 min 0 W/m 6,3 km/h (2 Bft) 93,62 %
30.05.2017 04:30 20,7 C 20,0 C 18,9 C 84 % 0 lf 1011,3 hPa 0,0 l/m 0 min 0 min 0 W/m 8,4 km/h (2 Bft) 93,62 %
30.05.2017 04:32 20,7 C 20,0 C 18,9 C 84 % 0 lf 1011,2 hPa 0,0 l/m 0 min 0 min 0 W/m 4,2 km/h (1 Bft) 93,62 %
30.05.2017 04:34 20,7 C 20,0 C 18,3 C 84 % 0 lf 1011,2 hPa 0,0 l/m 0 min 0 min 0 W/m 8,4 km/h (2 Bft) 93,62 %
30.05.2017 04:36 20,7 C 20,0 C 18,3 C 84 % 0 lf 1011,3 hPa 0,0 l/m 0 min 0 min 0 W/m 8,4 km/h (2 Bft) 93,48 %
30.05.2017 04:38 20,7 C 20,0 C 18,3 C 84 % 0 lf 1011,3 hPa 0,0 l/m 0 min 0 min 0 W/m 8,4 km/h (2 Bft) 93,62 %
30.05.2017 04:40 20,6 C 20,0 C 18,3 C 84 % 0 lf 1011,3 hPa 0,0 l/m 0 min 0 min 0 W/m 8,4 km/h (2 Bft) 89,36 %
30.05.2017 04:42 20,6 C 19,4 C 18,3 C 84 % 0 lf 1011,3 hPa 0,0 l/m 0 min 0 min 0 W/m 4,2 km/h (1 Bft) 87,23 %
30.05.2017 04:44 20,6 C 19,4 C 17,8 C 84 % 0 lf 1011,3 hPa 0,0 l/m 0 min 0 min 0 W/m 4,2 km/h (1 Bft) 93,62 %
30.05.2017 04:46 20,6 C 19,4 C 17,8 C 84 % 0 lf 1011,4 hPa 0,0 l/m 0 min 0 min 0 W/m 4,2 km/h (1 Bft) 84,78 %
30.05.2017 04:48 20,5 C 19,4 C 17,8 C 84 % 0 lf 1011,3 hPa 0,0 l/m 0 min 0 min 0 W/m 4,2 km/h (1 Bft) 95,74 %
30.05.2017 04:50 20,5 C 19,4 C 17,8 C 84 % 0 lf 1011,3 hPa 0,0 l/m 0 min 0 min 0 W/m 6,3 km/h (2 Bft) 94,92 %
30.05.2017 04:52 20,5 C 19,4 C 17,8 C 84 % 0 lf 1011,3 hPa 0,0 l/m 0 min 0 min 0 W/m 6,3 km/h (2 Bft) 97,14 %
30.05.2017 04:54 20,4 C 19,4 C 17,8 C 84 % 0 lf 1011,3 hPa 0,0 l/m 0 min 0 min 0 W/m 4,2 km/h (1 Bft) 97,87 %
30.05.2017 04:56 20,4 C 19,4 C 18,3 C 84 % 0 lf 1011,3 hPa 0,0 l/m 0 min 0 min 0 W/m 6,3 km/h (2 Bft) 95,74 %
30.05.2017 04:58 20,4 C 19,4 C 18,3 C 84 % 0 lf 1011,4 hPa 0,0 l/m 0 min 0 min 0 W/m 6,3 km/h (2 Bft) 93,62 %
30.05.2017 05:00 20,4 C 19,4 C 18,3 C 84 % 0 lf 1011,4 hPa 0,0 l/m 0 min 0 min 0 W/m 12,6 km/h (3 Bft) 93,48 %
30.05.2017 05:02 20,3 C 19,4 C 18,3 C 85 % 0 lf 1011,4 hPa 0,0 l/m 0 min 0 min 0 W/m 8,4 km/h (2 Bft) 95,74 %
30.05.2017 05:04 20,3 C 19,4 C 18,3 C 85 % 0 lf 1011,3 hPa 0,0 l/m 0 min 0 min 0 W/m 8,4 km/h (2 Bft) 91,49 %
30.05.2017 05:06 20,3 C 19,4 C 18,3 C 85 % 0 lf 1011,3 hPa 0,0 l/m 0 min 0 min 0 W/m 8,4 km/h (2 Bft) 95,74 %
30.05.2017 05:08 20,3 C 19,4 C 18,3 C 85 % 0 lf 1011,3 hPa 0,0 l/m 0 min 0 min 0 W/m 8,4 km/h (2 Bft) 97,87 %
30.05.2017 05:10 20,2 C 19,4 C 18,3 C 85 % 0 lf 1011,3 hPa 0,0 l/m 0 min 0 min 0 W/m 10,5 km/h (2 Bft) 95,65 %
30.05.2017 05:12 20,2 C 19,4 C 18,3 C 85 % 0 lf 1011,3 hPa 0,0 l/m 0 min 0 min 0 W/m 6,3 km/h (2 Bft) 97,87 %
30.05.2017 05:14 20,2 C 19,4 C 18,3 C 85 % 0 lf 1011,3 hPa 0,0 l/m 0 min 0 min 0 W/m 6,3 km/h (2 Bft) 97,87 %
30.05.2017 05:16 20,2 C 19,4 C 18,3 C 85 % 0 lf 1011,3 hPa 0,0 l/m 0 min 0 min 0 W/m 6,3 km/h (2 Bft) 97,87 %
30.05.2017 05:18 20,2 C 19,4 C 18,3 C 85 % 0 lf 1011,5 hPa 0,0 l/m 0 min 0 min 0 W/m 8,4 km/h (2 Bft) 95,74 %
30.05.2017 05:20 20,1 C 19,4 C 18,3 C 85 % 0 lf 1011,4 hPa 0,0 l/m 0 min 0 min 0 W/m 10,5 km/h (2 Bft) 97,87 %
30.05.2017 05:22 20,1 C 19,4 C 18,3 C 85 % 0 lf 1011,4 hPa 0,0 l/m 0 min 0 min 0 W/m 6,3 km/h (2 Bft) 95,65 %
30.05.2017 05:24 20,1 C 19,4 C 18,3 C 85 % 0 lf 1011,5 hPa 0,0 l/m 0 min 0 min 0 W/m 8,4 km/h (2 Bft) 98,00 %
30.05.2017 05:26 20,1 C 19,4 C 18,3 C 85 % 0 lf 1011,4 hPa 0,0 l/m 0 min 0 min 0 W/m 10,5 km/h (2 Bft) 93,62 %
30.05.2017 05:28 20,0 C 19,4 C 18,3 C 85 % 0 lf 1011,5 hPa 0,0 l/m 0 min 0 min 0 W/m 8,4 km/h (2 Bft) 97,87 %
30.05.2017 05:30 20,0 C 19,4 C 18,3 C 85 % 0 lf 1011,5 hPa 0,0 l/m 0 min 0 min 2 W/m 4,2 km/h (1 Bft) 97,87 %
30.05.2017 05:32 20,0 C 19,4 C 18,3 C 85 % 0 lf 1011,5 hPa 0,0 l/m 0 min 0 min 8 W/m 8,4 km/h (2 Bft) 93,62 %
30.05.2017 05:34 20,0 C 19,4 C 18,3 C 85 % 0 lf 1011,5 hPa 0,0 l/m 0 min 0 min 8 W/m 10,5 km/h (2 Bft) 93,48 %
30.05.2017 05:36 20,0 C 19,4 C 18,3 C 85 % 0 lf 1011,6 hPa 0,0 l/m 0 min 0 min 8 W/m 10,5 km/h (2 Bft) 95,74 %
30.05.2017 05:38 19,9 C 19,4 C 18,3 C 85 % 0 lf 1011,5 hPa 0,0 l/m 0 min 0 min 12 W/m 8,4 km/h (2 Bft) 95,74 %
30.05.2017 05:40 19,9 C 19,4 C 18,3 C 85 % 0 lf 1011,6 hPa 0,0 l/m 0 min 0 min 15 W/m 6,3 km/h (2 Bft) 93,62 %
30.05.2017 05:42 19,9 C 19,4 C 18,3 C 85 % 0 lf 1011,6 hPa 0,0 l/m 0 min 0 min 16 W/m 6,3 km/h (2 Bft) 97,87 %
30.05.2017 05:44 19,9 C 19,4 C 18,3 C 85 % 0 lf 1011,7 hPa 0,0 l/m 0 min 0 min 16 W/m 8,4 km/h (2 Bft) 97,87 %
30.05.2017 05:46 19,9 C 19,4 C 18,3 C 85 % 0 lf 1011,6 hPa 0,0 l/m 0 min 0 min 16 W/m 8,4 km/h (2 Bft) 95,65 %
30.05.2017 05:48 19,9 C 19,4 C 18,3 C 85 % 0 lf 1011,7 hPa 0,0 l/m 0 min 0 min 16 W/m 8,4 km/h (2 Bft) 100,00 %
30.05.2017 05:50 19,9 C 19,4 C 18,3 C 85 % 0 lf 1011,6 hPa 0,0 l/m 0 min 0 min 16 W/m 8,4 km/h (2 Bft) 100,00 %
30.05.2017 05:52 19,9 C 19,4 C 18,3 C 85 % 0 lf 1011,6 hPa 0,0 l/m 0 min 0 min 17 W/m 10,5 km/h (2 Bft) 97,87 %
30.05.2017 05:54 19,9 C 19,4 C 18,3 C 85 % 0 lf 1011,6 hPa 0,0 l/m 0 min 0 min 18 W/m 8,4 km/h (2 Bft) 95,74 %
30.05.2017 05:56 19,9 C 19,4 C 18,3 C 85 % 0 lf 1011,7 hPa 0,0 l/m 0 min 0 min 18 W/m 6,3 km/h (2 Bft) 100,00 %
30.05.2017 05:58 19,8 C 19,4 C 18,3 C 85 % 0 lf 1011,7 hPa 0,0 l/m 0 min 0 min 18 W/m 14,6 km/h (3 Bft) 97,87 %
30.05.2017 06:00 19,8 C 19,4 C 18,3 C 85 % 0 lf 1011,8 hPa 0,0 l/m 0 min 0 min 20 W/m 14,6 km/h (3 Bft) 95,74 %
30.05.2017 06:02 19,8 C 19,4 C 18,3 C 85 % 0 lf 1011,8 hPa 0,0 l/m 0 min 0 min 22 W/m 14,6 km/h (3 Bft) 95,74 %
30.05.2017 06:04 19,8 C 19,4 C 18,3 C 85 % 0 lf 1011,8 hPa 0,0 l/m 0 min 0 min 25 W/m 14,6 km/h (3 Bft) 97,87 %
30.05.2017 06:06 19,8 C 19,4 C 18,3 C 84 % 0 lf 1011,8 hPa 0,0 l/m 0 min 0 min 28 W/m 8,4 km/h (2 Bft) 100,00 %
30.05.2017 06:10 19,8 C 19,4 C 18,3 C 84 % 0 lf 1011,8 hPa 0,0 l/m 0 min 0 min 33 W/m 8,4 km/h (2 Bft) 100,00 %
30.05.2017 06:12 19,8 C 19,4 C 18,3 C 84 % 0 lf 1011,8 hPa 0,0 l/m 0 min 0 min 38 W/m 6,3 km/h (2 Bft) 96,00 %
30.05.2017 06:14 19,8 C 19,4 C 18,3 C 84 % 0 lf 1011,8 hPa 0,0 l/m 0 min 0 min 41 W/m 8,4 km/h (2 Bft) 97,83 %
30.05.2017 06:16 19,8 C 19,4 C 18,3 C 84 % 0 lf 1011,8 hPa 0,0 l/m 0 min 0 min 47 W/m 6,3 km/h (2 Bft) 97,87 %
30.05.2017 06:18 19,7 C 19,4 C 18,3 C 84 % 0 lf 1011,8 hPa 0,0 l/m 0 min 0 min 48 W/m 4,2 km/h (1 Bft) 97,87 %
30.05.2017 06:20 19,7 C 19,4 C 18,3 C 84 % 0 lf 1011,8 hPa 0,0 l/m 0 min 0 min 49 W/m 6,3 km/h (2 Bft) 97,87 %
30.05.2017 06:22 19,7 C 19,4 C 18,3 C 84 % 0 lf 1011,8 hPa 0,0 l/m 0 min 0 min 52 W/m 6,3 km/h (2 Bft) 97,87 %
30.05.2017 06:24 19,7 C 19,4 C 18,3 C 84 % 0 lf 1011,8 hPa 0,0 l/m 0 min 0 min 58 W/m 4,2 km/h (1 Bft) 95,74 %
30.05.2017 06:26 19,7 C 19,4 C 18,3 C 84 % 0 lf 1011,8 hPa 0,0 l/m 0 min 0 min 59 W/m 4,2 km/h (1 Bft) 95,65 %
30.05.2017 06:28 19,7 C 19,4 C 18,3 C 84 % 0 lf 1011,8 hPa 0,0 l/m 0 min 0 min 58 W/m 6,3 km/h (2 Bft) 97,87 %
30.05.2017 06:30 19,7 C 19,4 C 18,3 C 84 % 0 lf 1011,9 hPa 0,0 l/m 0 min 0 min 58 W/m 4,2 km/h (1 Bft) 97,87 %
30.05.2017 06:32 19,7 C 19,4 C 17,8 C 84 % 0 lf 1011,9 hPa 0,0 l/m 0 min 0 min 59 W/m 6,3 km/h (2 Bft) 97,87 %
30.05.2017 06:34 19,7 C 19,4 C 17,8 C 84 % 0 lf 1012,0 hPa 0,0 l/m 0 min 0 min 62 W/m 8,4 km/h (2 Bft) 97,87 %
30.05.2017 06:36 19,7 C 19,4 C 17,8 C 84 % 0 lf 1012,0 hPa 0,0 l/m 0 min 0 min 64 W/m 8,4 km/h (2 Bft) 97,87 %
30.05.2017 06:38 19,7 C 19,4 C 17,8 C 84 % 0 lf 1012,0 hPa 0,0 l/m 0 min 0 min 68 W/m 6,3 km/h (2 Bft) 97,83 %
30.05.2017 06:40 19,7 C 19,4 C 18,3 C 84 % 0 lf 1011,9 hPa 0,0 l/m 0 min 0 min 54 W/m 10,5 km/h (2 Bft) 97,87 %
30.05.2017 06:42 19,7 C 20,0 C 18,3 C 85 % 0 lf 1012,0 hPa 0,0 l/m 0 min 0 min 62 W/m 12,6 km/h (3 Bft) 95,74 %
30.05.2017 06:44 19,7 C 20,0 C 18,3 C 85 % 0 lf 1012,0 hPa 0,0 l/m 0 min 0 min 72 W/m 8,4 km/h (2 Bft) 100,00 %
30.05.2017 06:46 19,7 C 20,0 C 18,9 C 85 % 0 lf 1012,0 hPa 0,0 l/m 0 min 0 min 77 W/m 8,4 km/h (2 Bft) 100,00 %
30.05.2017 06:48 19,7 C 20,6 C 18,9 C 85 % 0 lf 1012,0 hPa 0,0 l/m 0 min 0 min 84 W/m 0,0 km/h (0 Bft) 100,00 %
30.05.2017 06:50 19,7 C 20,6 C 18,9 C 85 % 0 lf 1012,0 hPa 0,0 l/m 0 min 0 min 86 W/m 0,0 km/h (0 Bft) 100,00 %
30.05.2017 06:52 19,7 C 20,6 C 18,9 C 85 % 0 lf 1012,0 hPa 0,0 l/m 0 min 0 min 78 W/m 6,3 km/h (2 Bft) 97,87 %
30.05.2017 06:54 19,7 C 20,6 C 19,4 C 85 % 0 lf 1012,0 hPa 0,0 l/m 0 min 0 min 70 W/m 4,2 km/h (1 Bft) 97,87 %
30.05.2017 06:56 19,7 C 20,6 C 19,4 C 85 % 0 lf 1012,0 hPa 0,0 l/m 0 min 0 min 66 W/m 8,4 km/h (2 Bft) 100,00 %
30.05.2017 06:58 19,7 C 20,6 C 19,4 C 85 % 0 lf 1012,0 hPa 0,0 l/m 0 min 0 min 68 W/m 8,4 km/h (2 Bft) 97,87 %
30.05.2017 07:00 19,7 C 20,6 C 19,4 C 85 % 0 lf 1012,0 hPa 0,0 l/m 0 min 0 min 68 W/m 6,3 km/h (2 Bft) 95,74 %
30.05.2017 07:02 19,8 C 20,6 C 19,4 C 85 % 0 lf 1012,0 hPa 0,0 l/m 0 min 0 min 67 W/m 4,2 km/h (1 Bft) 100,00 %
30.05.2017 07:04 19,8 C 21,1 C 19,4 C 85 % 0 lf 1012,0 hPa 0,0 l/m 0 min 0 min 66 W/m 6,3 km/h (2 Bft) 100,00 %
30.05.2017 07:06 19,8 C 20,6 C 19,4 C 85 % 0 lf 1012,1 hPa 0,0 l/m 0 min 0 min 63 W/m 4,2 km/h (1 Bft) 97,87 %
30.05.2017 07:08 19,8 C 20,6 C 19,4 C 85 % 0 lf 1012,1 hPa 0,0 l/m 0 min 0 min 61 W/m 4,2 km/h (1 Bft) 97,87 %
30.05.2017 07:10 19,8 C 21,1 C 19,4 C 85 % 0 lf 1012,1 hPa 0,0 l/m 0 min 0 min 71 W/m 4,2 km/h (1 Bft) 100,00 %
30.05.2017 07:12 19,8 C 21,1 C 19,4 C 85 % 0 lf 1012,1 hPa 0,0 l/m 0 min 0 min 85 W/m 4,2 km/h (1 Bft) 97,83 %
30.05.2017 07:14 19,9 C 21,1 C 19,4 C 85 % 0 lf 1012,1 hPa 0,0 l/m 0 min 0 min 87 W/m 6,3 km/h (2 Bft) 97,87 %
30.05.2017 07:16 19,9 C 21,1 C 20,0 C 85 % 0 lf 1012,2 hPa 0,0 l/m 0 min 0 min 87 W/m 4,2 km/h (1 Bft) 95,74 %
30.05.2017 07:18 19,9 C 21,7 C 20,0 C 85 % 0 lf 1012,1 hPa 0,0 l/m 0 min 0 min 82 W/m 4,2 km/h (1 Bft) 95,74 %
30.05.2017 07:20 19,9 C 21,1 C 20,0 C 85 % 0 lf 1012,1 hPa 0,0 l/m 0 min 0 min 69 W/m 8,4 km/h (2 Bft) 97,87 %
30.05.2017 07:22 19,9 C 21,1 C 19,4 C 85 % 0 lf 1012,1 hPa 0,0 l/m 0 min 0 min 64 W/m 6,3 km/h (2 Bft) 91,49 %
30.05.2017 07:24 19,9 C 21,1 C 19,4 C 85 % 0 lf 1012,1 hPa 0,0 l/m 0 min 0 min 70 W/m 6,3 km/h (2 Bft) 95,65 %
30.05.2017 07:26 20,0 C 21,1 C 19,4 C 85 % 0 lf 1012,1 hPa 0,0 l/m 0 min 0 min 80 W/m 10,5 km/h (2 Bft) 93,62 %
30.05.2017 07:28 20,0 C 21,1 C 19,4 C 85 % 0 lf 1012,1 hPa 0,0 l/m 0 min 0 min 92 W/m 6,3 km/h (2 Bft) 95,74 %
30.05.2017 07:30 20,0 C 21,1 C 19,4 C 85 % 0 lf 1012,2 hPa 0,0 l/m 0 min 0 min 110 W/m 6,3 km/h (2 Bft) 95,74 %
30.05.2017 07:32 20,0 C 21,1 C 19,4 C 85 % 0 lf 1012,2 hPa 0,0 l/m 0 min 0 min 99 W/m 4,2 km/h (1 Bft) 95,74 %
30.05.2017 07:34 20,0 C 21,1 C 18,9 C 85 % 0 lf 1012,2 hPa 0,0 l/m 0 min 0 min 85 W/m 4,2 km/h (1 Bft) 93,62 %
30.05.2017 07:36 20,1 C 21,1 C 18,9 C 85 % 0 lf 1012,2 hPa 0,0 l/m 0 min 0 min 103 W/m 6,3 km/h (2 Bft) 93,48 %
30.05.2017 07:38 20,1 C 21,1 C 18,9 C 85 % 0 lf 1012,2 hPa 0,0 l/m 2 min 0 min 148 W/m 8,4 km/h (2 Bft) 95,74 %
30.05.2017 07:40 20,1 C 21,1 C 18,9 C 85 % 0 lf 1012,2 hPa 0,0 l/m 2 min 0 min 159 W/m 10,5 km/h (2 Bft) 93,62 %
30.05.2017 07:42 20,1 C 21,1 C 18,9 C 85 % 0 lf 1012,2 hPa 0,0 l/m 2 min 0 min 162 W/m 8,4 km/h (2 Bft) 93,62 %
30.05.2017 07:44 20,1 C 21,1 C 19,4 C 85 % 0 lf 1012,2 hPa 0,0 l/m 2 min 0 min 178 W/m 10,5 km/h (2 Bft) 91,49 %
30.05.2017 07:46 20,1 C 21,1 C 19,4 C 85 % 0 lf 1012,2 hPa 0,0 l/m 2 min 0 min 184 W/m 8,4 km/h (2 Bft) 93,62 %
30.05.2017 07:48 20,1 C 21,1 C 19,4 C 86 % 0 lf 1012,2 hPa 0,0 l/m 2 min 0 min 186 W/m 6,3 km/h (2 Bft) 93,48 %
30.05.2017 07:50 20,1 C 21,7 C 19,4 C 86 % 0 lf 1012,2 hPa 0,0 l/m 2 min 0 min 189 W/m 8,4 km/h (2 Bft) 91,49 %
30.05.2017 07:52 20,2 C 21,7 C 19,4 C 85 % 0 lf 1012,2 hPa 0,0 l/m 2 min 0 min 193 W/m 8,4 km/h (2 Bft) 93,62 %
30.05.2017 07:54 20,2 C 21,7 C 19,4 C 85 % 0 lf 1012,2 hPa 0,0 l/m 2 min 0 min 201 W/m 8,4 km/h (2 Bft) 91,49 %
30.05.2017 07:56 20,2 C 21,7 C 19,4 C 85 % 0 lf 1012,2 hPa 0,0 l/m 2 min 0 min 205 W/m 8,4 km/h (2 Bft) 89,36 %
30.05.2017 07:58 20,2 C 21,7 C 19,4 C 85 % 0 lf 1012,3 hPa 0,0 l/m 2 min 0 min 212 W/m 10,5 km/h (2 Bft) 91,49 %
30.05.2017 08:00 20,2 C 21,7 C 19,4 C 85 % 0 lf 1012,3 hPa 0,0 l/m 2 min 0 min 224 W/m 12,6 km/h (3 Bft) 93,48 %
30.05.2017 08:02 20,2 C 22,2 C 20,0 C 85 % 0 lf 1012,3 hPa 0,0 l/m 2 min 0 min 230 W/m 12,6 km/h (3 Bft) 93,62 %
30.05.2017 08:04 20,3 C 22,2 C 20,0 C 85 % 0 lf 1012,3 hPa 0,0 l/m 2 min 0 min 251 W/m 8,4 km/h (2 Bft) 91,49 %
30.05.2017 08:06 20,3 C 22,8 C 20,6 C 85 % 0 lf 1012,3 hPa 0,0 l/m 2 min 0 min 278 W/m 12,6 km/h (3 Bft) 97,87 %
30.05.2017 08:08 20,4 C 23,3 C 20,6 C 85 % 0 lf 1012,3 hPa 0,0 l/m 2 min 0 min 289 W/m 8,4 km/h (2 Bft) 89,36 %
30.05.2017 08:10 20,5 C 23,9 C 20,6 C 85 % 0 lf 1012,3 hPa 0,0 l/m 2 min 0 min 274 W/m 12,6 km/h (3 Bft) 91,49 %
30.05.2017 08:12 20,6 C 23,9 C 20,6 C 85 % 0 lf 1012,3 hPa 0,0 l/m 2 min 0 min 261 W/m 10,5 km/h (2 Bft) 91,30 %
30.05.2017 08:14 20,6 C 23,9 C 21,1 C 84 % 0 lf 1012,3 hPa 0,0 l/m 2 min 0 min 252 W/m 8,4 km/h (2 Bft) 91,49 %
30.05.2017 08:16 20,7 C 23,9 C 21,1 C 84 % 0 lf 1012,3 hPa 0,0 l/m 2 min 0 min 227 W/m 8,4 km/h (2 Bft) 91,49 %
30.05.2017 08:18 20,8 C 23,9 C 21,1 C 84 % 0 lf 1012,4 hPa 0,0 l/m 2 min 0 min 197 W/m 6,3 km/h (2 Bft) 91,49 %
30.05.2017 08:20 20,8 C 23,9 C 21,1 C 84 % 0 lf 1012,4 hPa 0,0 l/m 2 min 0 min 225 W/m 10,5 km/h (2 Bft) 93,62 %
30.05.2017 08:22 20,9 C 24,4 C 21,7 C 84 % 0 lf 1012,5 hPa 0,0 l/m 2 min 0 min 243 W/m 14,6 km/h (3 Bft) 91,30 %
30.05.2017 08:24 21,0 C 25,0 C 22,2 C 84 % 0 lf 1012,5 hPa 0,0 l/m 2 min 0 min 379 W/m 10,5 km/h (2 Bft) 97,87 %
30.05.2017 08:26 21,1 C 25,0 C 22,2 C 84 % 0 lf 1012,5 hPa 0,0 l/m 2 min 0 min 355 W/m 12,6 km/h (3 Bft) 95,74 %
30.05.2017 08:28 21,2 C 26,7 C 22,2 C 84 % 0 lf 1012,5 hPa 0,0 l/m 2 min 0 min 303 W/m 8,4 km/h (2 Bft) 97,87 %
30.05.2017 08:30 21,3 C 27,2 C 22,2 C 84 % 0 lf 1012,4 hPa 0,0 l/m 2 min 0 min 265 W/m 10,5 km/h (2 Bft) 95,74 %
30.05.2017 08:32 21,3 C 28,3 C 22,8 C 84 % 0 lf 1012,4 hPa 0,0 l/m 2 min 0 min 320 W/m 8,4 km/h (2 Bft) 93,62 %
30.05.2017 08:34 21,4 C 27,8 C 22,8 C 84 % 0 lf 1012,4 hPa 0,0 l/m 2 min 0 min 308 W/m 12,6 km/h (3 Bft) 93,62 %
30.05.2017 08:36 21,6 C 27,2 C 22,8 C 83 % 0 lf 1012,4 hPa 0,0 l/m 2 min 0 min 329 W/m 18,8 km/h (3 Bft) 95,65 %
30.05.2017 08:38 21,7 C 28,3 C 22,2 C 83 % 0 lf 1012,4 hPa 0,0 l/m 2 min 0 min 335 W/m 12,6 km/h (3 Bft) 97,87 %
30.05.2017 08:40 21,8 C 27,8 C 22,2 C 82 % 0 lf 1012,5 hPa 0,0 l/m 2 min 0 min 236 W/m 8,4 km/h (2 Bft) 93,62 %
30.05.2017 08:42 21,9 C 27,2 C 22,2 C 82 % 0 lf 1012,5 hPa 0,0 l/m 2 min 0 min 225 W/m 8,4 km/h (2 Bft) 95,74 %
30.05.2017 08:44 21,9 C 26,7 C 22,2 C 82 % 0 lf 1012,5 hPa 0,0 l/m 0 min 0 min 215 W/m 8,4 km/h (2 Bft) 91,49 %
30.05.2017 08:46 22,0 C 27,8 C 22,2 C 82 % 0 lf 1012,4 hPa 0,0 l/m 2 min 0 min 301 W/m 8,4 km/h (2 Bft) 97,83 %
30.05.2017 08:48 22,1 C 27,8 C 22,8 C 81 % 0 lf 1012,5 hPa 0,0 l/m 2 min 0 min 406 W/m 10,5 km/h (2 Bft) 95,74 %
30.05.2017 08:50 22,2 C 28,3 C 22,8 C 81 % 0 lf 1012,5 hPa 0,0 l/m 2 min 0 min 381 W/m 12,6 km/h (3 Bft) 100,00 %
30.05.2017 08:52 22,3 C 27,8 C 23,3 C 81 % 0 lf 1012,5 hPa 0,0 l/m 2 min 0 min 272 W/m 12,6 km/h (3 Bft) 97,87 %
30.05.2017 08:54 22,3 C 26,7 C 23,3 C 81 % 0 lf 1012,5 hPa 0,0 l/m 0 min 0 min 224 W/m 8,4 km/h (2 Bft) 100,00 %
30.05.2017 08:56 22,4 C 25,6 C 23,3 C 80 % 0 lf 1012,5 hPa 0,0 l/m 0 min 0 min 187 W/m 12,6 km/h (3 Bft) 97,87 %
30.05.2017 08:58 22,4 C 25,0 C 22,8 C 80 % 0 lf 1012,6 hPa 0,0 l/m 0 min 0 min 175 W/m 12,6 km/h (3 Bft) 100,00 %
30.05.2017 09:00 22,4 C 24,4 C 22,8 C 80 % 0 lf 1012,5 hPa 0,0 l/m 0 min 0 min 168 W/m 10,5 km/h (2 Bft) 97,87 %
30.05.2017 09:02 22,4 C 23,9 C 22,8 C 79 % 0 lf 1012,5 hPa 0,0 l/m 0 min 0 min 181 W/m 10,5 km/h (2 Bft) 97,87 %
30.05.2017 09:04 22,4 C 23,9 C 22,8 C 79 % 0 lf 1012,5 hPa 0,0 l/m 0 min 0 min 188 W/m 6,3 km/h (2 Bft) 97,87 %
30.05.2017 09:06 22,5 C 23,9 C 22,8 C 79 % 0 lf 1012,6 hPa 0,0 l/m 0 min 0 min 208 W/m 10,5 km/h (2 Bft) 100,00 %
30.05.2017 09:08 22,5 C 25,0 C 23,3 C 79 % 0 lf 1012,5 hPa 0,0 l/m 2 min 0 min 280 W/m 6,3 km/h (2 Bft) 100,00 %
30.05.2017 09:10 22,5 C 26,1 C 23,3 C 80 % 0 lf 1012,7 hPa 0,0 l/m 2 min 0 min 267 W/m 10,5 km/h (2 Bft) 100,00 %
30.05.2017 09:12 22,6 C 26,7 C 23,9 C 80 % 0 lf 1012,8 hPa 0,0 l/m 2 min 0 min 274 W/m 10,5 km/h (2 Bft) 100,00 %
30.05.2017 09:14 22,6 C 26,1 C 23,9 C 79 % 0 lf 1012,8 hPa 0,0 l/m 0 min 0 min 243 W/m 14,6 km/h (3 Bft) 97,87 %
30.05.2017 09:16 22,7 C 25,6 C 23,9 C 79 % 0 lf 1012,8 hPa 0,0 l/m 2 min 0 min 280 W/m 14,6 km/h (3 Bft) 97,87 %
30.05.2017 09:18 22,7 C 25,6 C 23,9 C 80 % 0 lf 1012,9 hPa 0,0 l/m 2 min 0 min 279 W/m 12,6 km/h (3 Bft) 100,00 %
30.05.2017 09:20 22,7 C 26,1 C 23,9 C 79 % 0 lf 1012,9 hPa 0,0 l/m 2 min 0 min 302 W/m 14,6 km/h (3 Bft) 100,00 %
30.05.2017 09:22 22,8 C 26,7 C 23,9 C 79 % 0 lf 1012,9 hPa 0,0 l/m 2 min 0 min 287 W/m 10,5 km/h (2 Bft) 100,00 %
30.05.2017 09:24 22,8 C 27,2 C 24,4 C 79 % 0 lf 1012,9 hPa 0,0 l/m 2 min 0 min 311 W/m 8,4 km/h (2 Bft) 100,00 %
30.05.2017 09:26 22,9 C 27,2 C 24,4 C 79 % 0 lf 1012,8 hPa 0,0 l/m 2 min 0 min 309 W/m 12,6 km/h (3 Bft) 97,87 %
30.05.2017 09:28 22,9 C 26,7 C 23,9 C 78 % 0 lf 1012,8 hPa 0,0 l/m 2 min 0 min 285 W/m 12,6 km/h (3 Bft) 100,00 %
30.05.2017 09:30 22,9 C 26,7 C 23,9 C 78 % 0 lf 1012,8 hPa 0,0 l/m 0 min 0 min 236 W/m 12,6 km/h (3 Bft) 100,00 %
30.05.2017 09:32 23,0 C 27,2 C 23,9 C 78 % 0 lf 1012,8 hPa 0,0 l/m 0 min 0 min 255 W/m 8,4 km/h (2 Bft) 95,74 %
30.05.2017 09:34 23,0 C 28,9 C 24,4 C 78 % 0 lf 1012,7 hPa 0,0 l/m 2 min 0 min 292 W/m 10,5 km/h (2 Bft) 97,83 %
30.05.2017 09:36 23,1 C 28,9 C 24,4 C 79 % 0 lf 1012,6 hPa 0,0 l/m 2 min 0 min 295 W/m 10,5 km/h (2 Bft) 97,87 %
30.05.2017 09:38 23,1 C 28,9 C 24,4 C 78 % 0 lf 1012,5 hPa 0,0 l/m 0 min 0 min 269 W/m 10,5 km/h (2 Bft) 97,87 %
30.05.2017 09:40 23,2 C 28,9 C 24,4 C 78 % 0 lf 1012,5 hPa 0,0 l/m 0 min 0 min 272 W/m 10,5 km/h (2 Bft) 100,00 %
30.05.2017 09:42 23,3 C 28,9 C 24,4 C 78 % 0 lf 1012,5 hPa 0,0 l/m 0 min 0 min 241 W/m 8,4 km/h (2 Bft) 100,00 %
30.05.2017 09:44 23,3 C 28,9 C 24,4 C 78 % 0 lf 1012,6 hPa 0,0 l/m 0 min 0 min 270 W/m 6,3 km/h (2 Bft) 97,87 %
30.05.2017 09:46 23,4 C 28,3 C 24,4 C 78 % 0 lf 1012,6 hPa 0,0 l/m 0 min 0 min 283 W/m 8,4 km/h (2 Bft) 100,00 %
30.05.2017 09:48 23,4 C 27,8 C 24,4 C 78 % 0 lf 1012,6 hPa 0,0 l/m 0 min 0 min 244 W/m 8,4 km/h (2 Bft) 100,00 %
30.05.2017 09:50 23,4 C 27,8 C 24,4 C 78 % 0 lf 1012,6 hPa 0,0 l/m 0 min 0 min 206 W/m 10,5 km/h (2 Bft) 97,87 %
30.05.2017 09:52 23,5 C 27,2 C 24,4 C 77 % 0 lf 1012,6 hPa 0,0 l/m 0 min 0 min 203 W/m 10,5 km/h (2 Bft) 97,87 %
30.05.2017 09:54 23,5 C 26,7 C 24,4 C 77 % 0 lf 1012,6 hPa 0,0 l/m 0 min 0 min 243 W/m 8,4 km/h (2 Bft) 95,74 %
30.05.2017 09:56 23,5 C 27,2 C 24,4 C 77 % 0 lf 1012,6 hPa 0,0 l/m 0 min 0 min 256 W/m 10,5 km/h (2 Bft) 100,00 %
30.05.2017 09:58 23,6 C 27,2 C 24,4 C 77 % 0 lf 1012,7 hPa 0,0 l/m 0 min 0 min 249 W/m 10,5 km/h (2 Bft) 100,00 %
30.05.2017 10:00 23,6 C 27,2 C 25,0 C 77 % 0 lf 1012,7 hPa 0,0 l/m 0 min 0 min 247 W/m 8,4 km/h (2 Bft) 100,00 %
30.05.2017 10:02 23,6 C 27,2 C 25,0 C 77 % 0 lf 1012,7 hPa 0,0 l/m 0 min 0 min 249 W/m 12,6 km/h (3 Bft) 95,74 %
30.05.2017 10:04 23,6 C 28,3 C 25,0 C 77 % 0 lf 1012,7 hPa 0,0 l/m 0 min 0 min 246 W/m 10,5 km/h (2 Bft) 97,87 %
30.05.2017 10:06 23,7 C 28,3 C 25,6 C 77 % 0 lf 1012,7 hPa 0,0 l/m 0 min 0 min 256 W/m 12,6 km/h (3 Bft) 91,49 %
30.05.2017 10:08 23,7 C 30,0 C 26,7 C 77 % 0 lf 1012,7 hPa 0,0 l/m 0 min 0 min 256 W/m 10,5 km/h (2 Bft) 97,83 %
30.05.2017 10:10 23,7 C 30,0 C 26,1 C 76 % 0 lf 1012,7 hPa 0,0 l/m 2 min 0 min 470 W/m 12,6 km/h (3 Bft) 100,00 %
30.05.2017 10:12 23,7 C 29,4 C 26,1 C 76 % 0 lf 1012,8 hPa 0,0 l/m 0 min 0 min 287 W/m 8,4 km/h (2 Bft) 97,87 %
30.05.2017 10:14 23,8 C 28,3 C 25,6 C 76 % 0 lf 1012,8 hPa 0,0 l/m 0 min 0 min 263 W/m 12,6 km/h (3 Bft) 100,00 %
30.05.2017 10:16 23,8 C 27,8 C 25,6 C 76 % 0 lf 1012,8 hPa 0,0 l/m 0 min 0 min 240 W/m 12,6 km/h (3 Bft) 95,74 %
30.05.2017 10:18 23,8 C 27,2 C 25,0 C 77 % 0 lf 1012,8 hPa 0,0 l/m 0 min 0 min 256 W/m 23,0 km/h (4 Bft) 97,87 %
30.05.2017 10:20 23,8 C 26,7 C 25,0 C 76 % 0 lf 1012,8 hPa 0,0 l/m 0 min 0 min 249 W/m 18,8 km/h (3 Bft) 95,65 %
30.05.2017 10:22 23,7 C 26,7 C 25,0 C 75 % 0 lf 1012,8 hPa 0,0 l/m 0 min 0 min 248 W/m 20,9 km/h (4 Bft) 95,74 %
30.05.2017 10:24 23,7 C 27,2 C 25,0 C 75 % 0 lf 1012,8 hPa 0,0 l/m 0 min 0 min 244 W/m 23,0 km/h (4 Bft) 93,62 %
30.05.2017 10:26 23,7 C 27,2 C 25,6 C 75 % 0 lf 1012,8 hPa 0,0 l/m 0 min 0 min 243 W/m 16,7 km/h (3 Bft) 95,74 %
30.05.2017 10:28 23,7 C 26,7 C 25,0 C 75 % 0 lf 1012,8 hPa 0,0 l/m 0 min 0 min 234 W/m 12,6 km/h (3 Bft) 93,62 %
30.05.2017 10:30 23,7 C 26,7 C 25,6 C 75 % 0 lf 1012,8 hPa 0,0 l/m 0 min 0 min 265 W/m 14,6 km/h (3 Bft) 93,62 %
30.05.2017 10:32 23,8 C 28,9 C 27,2 C 76 % 0 lf 1012,8 hPa 0,0 l/m 0 min 0 min 331 W/m 12,6 km/h (3 Bft) 91,30 %
30.05.2017 10:34 23,8 C 30,0 C 28,9 C 76 % 0 lf 1012,8 hPa 0,0 l/m 2 min 0 min 640 W/m 12,6 km/h (3 Bft) 93,62 %
30.05.2017 10:36 24,0 C 31,1 C 30,0 C 76 % 0 lf 1012,8 hPa 0,0 l/m 2 min 0 min 712 W/m 14,6 km/h (3 Bft) 89,36 %
30.05.2017 10:38 24,2 C 32,8 C 30,6 C 76 % 0 lf 1012,8 hPa 0,0 l/m 2 min 0 min 681 W/m 18,8 km/h (3 Bft) 89,36 %
30.05.2017 10:40 24,3 C 32,2 C 30,0 C 75 % 0 lf 1012,8 hPa 0,0 l/m 2 min 0 min 702 W/m 16,7 km/h (3 Bft) 91,49 %
30.05.2017 10:42 24,4 C 31,7 C 28,9 C 74 % 0 lf 1012,8 hPa 0,0 l/m 0 min 0 min 335 W/m 10,5 km/h (2 Bft) 89,36 %
30.05.2017 10:44 24,5 C 30,0 C 27,8 C 74 % 0 lf 1012,9 hPa 0,0 l/m 0 min 0 min 218 W/m 14,6 km/h (3 Bft) 93,48 %
30.05.2017 10:46 24,6 C 29,4 C 27,2 C 74 % 0 lf 1012,9 hPa 0,0 l/m 0 min 0 min 192 W/m 12,6 km/h (3 Bft) 91,49 %
30.05.2017 10:48 24,6 C 28,9 C 27,2 C 73 % 0 lf 1012,9 hPa 0,0 l/m 0 min 0 min 212 W/m 14,6 km/h (3 Bft) 87,23 %
30.05.2017 10:50 24,6 C 30,0 C 28,3 C 73 % 0 lf 1012,8 hPa 0,0 l/m 0 min 0 min 251 W/m 12,6 km/h (3 Bft) 91,49 %
30.05.2017 10:52 24,7 C 30,6 C 30,0 C 74 % 0 lf 1012,8 hPa 0,0 l/m 2 min 0 min 549 W/m 12,6 km/h (3 Bft) 89,36 %
30.05.2017 10:54 24,8 C 30,0 C 28,9 C 72 % 0 lf 1012,8 hPa 0,0 l/m 2 min 0 min 668 W/m 16,7 km/h (3 Bft) 91,49 %
30.05.2017 10:56 24,9 C 32,2 C 30,0 C 73 % 0 lf 1012,8 hPa 0,0 l/m 2 min 0 min 679 W/m 16,7 km/h (3 Bft) 93,48 %
30.05.2017 10:58 25,0 C 32,8 C 30,6 C 73 % 0 lf 1012,8 hPa 0,0 l/m 2 min 0 min 642 W/m 16,7 km/h (3 Bft) 93,62 %
30.05.2017 11:00 25,1 C 32,8 C 30,6 C 72 % 0 lf 1012,8 hPa 0,0 l/m 2 min 0 min 692 W/m 16,7 km/h (3 Bft) 91,49 %
30.05.2017 11:02 25,2 C 30,6 C 29,4 C 72 % 0 lf 1012,8 hPa 0,0 l/m 2 min 0 min 518 W/m 12,6 km/h (3 Bft) 93,62 %
30.05.2017 11:04 25,3 C 31,1 C 28,9 C 72 % 0 lf 1012,8 hPa 0,0 l/m 0 min 0 min 355 W/m 14,6 km/h (3 Bft) 93,62 %
30.05.2017 11:06 25,3 C 29,4 C 27,8 C 71 % 0 lf 1012,8 hPa 0,0 l/m 0 min 0 min 304 W/m 12,6 km/h (3 Bft) 91,30 %
30.05.2017 11:08 25,3 C 28,9 C 27,2 C 71 % 0 lf 1012,8 hPa 0,0 l/m 0 min 0 min 263 W/m 14,6 km/h (3 Bft) 97,87 %
30.05.2017 11:10 25,2 C 28,3 C 26,7 C 71 % 0 lf 1012,8 hPa 0,0 l/m 0 min 0 min 206 W/m 12,6 km/h (3 Bft) 91,49 %
30.05.2017 11:12 25,2 C 27,2 C 26,1 C 71 % 0 lf 1012,9 hPa 0,0 l/m 0 min 0 min 200 W/m 14,6 km/h (3 Bft) 95,74 %
30.05.2017 11:14 25,1 C 27,8 C 26,7 C 72 % 0 lf 1012,9 hPa 0,0 l/m 0 min 0 min 236 W/m 10,5 km/h (2 Bft) 91,49 %
30.05.2017 11:16 25,1 C 26,7 C 25,6 C 71 % 0 lf 1012,9 hPa 0,0 l/m 0 min 0 min 173 W/m 23,0 km/h (4 Bft) 91,49 %
30.05.2017 11:18 25,0 C 25,6 C 25,0 C 70 % 0 lf 1012,9 hPa 0,0 l/m 0 min 0 min 183 W/m 16,7 km/h (3 Bft) 95,65 %
30.05.2017 11:20 24,8 C 25,6 C 24,4 C 70 % 0 lf 1012,9 hPa 0,0 l/m 0 min 0 min 207 W/m 16,7 km/h (3 Bft) 97,87 %
30.05.2017 11:22 24,7 C 26,7 C 25,6 C 72 % 0 lf 1013,0 hPa 0,0 l/m 0 min 0 min 282 W/m 16,7 km/h (3 Bft) 93,62 %
30.05.2017 11:24 24,8 C 28,9 C 27,2 C 73 % 0 lf 1012,9 hPa 0,0 l/m 2 min 0 min 716 W/m 10,5 km/h (2 Bft) 95,74 %
30.05.2017 11:26 24,8 C 29,4 C 27,8 C 73 % 0 lf 1012,9 hPa 0,0 l/m 2 min 0 min 486 W/m 16,7 km/h (3 Bft) 97,87 %
30.05.2017 11:28 24,8 C 28,3 C 26,7 C 72 % 0 lf 1013,0 hPa 0,0 l/m 0 min 0 min 266 W/m 23,0 km/h (4 Bft) 95,74 %
30.05.2017 11:30 24,8 C 27,2 C 26,1 C 71 % 0 lf 1013,0 hPa 0,0 l/m 0 min 0 min 239 W/m 18,8 km/h (3 Bft) 95,74 %
30.05.2017 11:32 24,7 C 28,3 C 26,7 C 72 % 0 lf 1013,1 hPa 0,0 l/m 0 min 0 min 293 W/m 18,8 km/h (3 Bft) 97,83 %
30.05.2017 11:34 24,7 C 28,9 C 27,2 C 72 % 0 lf 1013,0 hPa 0,0 l/m 2 min 0 min 387 W/m 23,0 km/h (4 Bft) 100,00 %
30.05.2017 11:36 24,7 C 28,9 C 26,7 C 71 % 0 lf 1013,1 hPa 0,0 l/m 2 min 0 min 397 W/m 16,7 km/h (3 Bft) 95,74 %
30.05.2017 11:38 24,7 C 27,2 C 26,1 C 71 % 0 lf 1013,1 hPa 0,0 l/m 0 min 0 min 217 W/m 16,7 km/h (3 Bft) 100,00 %
30.05.2017 11:40 24,7 C 26,7 C 25,6 C 71 % 0 lf 1013,2 hPa 0,0 l/m 0 min 0 min 183 W/m 18,8 km/h (3 Bft) 97,87 %
30.05.2017 11:42 24,6 C 26,1 C 25,0 C 71 % 0 lf 1013,1 hPa 0,0 l/m 0 min 0 min 212 W/m 16,7 km/h (3 Bft) 100,00 %
30.05.2017 11:44 24,5 C 26,7 C 25,6 C 72 % 0 lf 1013,1 hPa 0,0 l/m 0 min 0 min 254 W/m 10,5 km/h (2 Bft) 100,00 %
30.05.2017 11:46 24,5 C 26,7 C 26,1 C 72 % 0 lf 1013,0 hPa 0,0 l/m 0 min 0 min 289 W/m 10,5 km/h (2 Bft) 93,62 %
30.05.2017 11:48 24,4 C 26,7 C 26,1 C 72 % 0 lf 1013,0 hPa 0,0 l/m 0 min 0 min 309 W/m 18,8 km/h (3 Bft) 100,00 %
30.05.2017 11:50 24,4 C 27,2 C 26,7 C 72 % 0 lf 1013,0 hPa 0,0 l/m 0 min 0 min 370 W/m 14,6 km/h (3 Bft) 97,87 %
30.05.2017 11:52 24,5 C 30,6 C 28,3 C 74 % 0 lf 1013,1 hPa 0,0 l/m 2 min 0 min 422 W/m 14,6 km/h (3 Bft) 100,00 %
30.05.2017 11:54 24,6 C 31,1 C 29,4 C 73 % 0 lf 1013,1 hPa 0,0 l/m 2 min 0 min 431 W/m 14,6 km/h (3 Bft) 97,83 %
30.05.2017 11:56 24,7 C 32,2 C 30,6 C 73 % 0 lf 1013,0 hPa 0,0 l/m 2 min 0 min 498 W/m 18,8 km/h (3 Bft) 97,87 %
30.05.2017 11:58 24,8 C 30,0 C 28,9 C 71 % 0 lf 1013,0 hPa 0,0 l/m 2 min 0 min 411 W/m 16,7 km/h (3 Bft) 97,87 %
30.05.2017 12:00 24,9 C 29,4 C 27,8 C 71 % 0 lf 1013,1 hPa 0,0 l/m 0 min 0 min 250 W/m 14,6 km/h (3 Bft) 100,00 %
30.05.2017 12:02 24,9 C 28,3 C 27,2 C 70 % 0 lf 1013,1 hPa 0,0 l/m 0 min 0 min 241 W/m 16,7 km/h (3 Bft) 97,87 %
30.05.2017 12:04 24,9 C 27,8 C 26,7 C 70 % 0 lf 1013,1 hPa 0,0 l/m 0 min 0 min 239 W/m 14,6 km/h (3 Bft) 100,00 %
30.05.2017 12:06 24,8 C 27,2 C 26,7 C 70 % 0 lf 1013,0 hPa 0,0 l/m 0 min 0 min 240 W/m 14,6 km/h (3 Bft) 97,83 %
30.05.2017 12:10 24,8 C 26,7 C 26,1 C 70 % 0 lf 1013,1 hPa 0,0 l/m 0 min 0 min 290 W/m 16,7 km/h (3 Bft) 96,81 %
30.05.2017 12:12 24,8 C 27,2 C 26,7 C 70 % 0 lf 1013,1 hPa 0,0 l/m 0 min 0 min 373 W/m 16,7 km/h (3 Bft) 97,87 %
30.05.2017 12:14 24,8 C 27,8 C 27,2 C 70 % 0 lf 1013,1 hPa 0,0 l/m 0 min 0 min 398 W/m 16,7 km/h (3 Bft) 97,87 %
30.05.2017 12:16 24,8 C 27,8 C 27,8 C 70 % 0 lf 1013,0 hPa 0,0 l/m 2 min 0 min 448 W/m 16,7 km/h (3 Bft) 95,74 %
30.05.2017 12:18 24,8 C 28,3 C 28,3 C 71 % 0 lf 1013,1 hPa 0,0 l/m 2 min 0 min 468 W/m 18,8 km/h (3 Bft) 97,83 %
30.05.2017 12:20 24,9 C 28,9 C 28,3 C 70 % 0 lf 1013,0 hPa 0,0 l/m 2 min 0 min 495 W/m 23,0 km/h (4 Bft) 100,00 %
30.05.2017 12:22 24,9 C 29,4 C 28,3 C 69 % 0 lf 1013,0 hPa 0,0 l/m 2 min 0 min 537 W/m 31,4 km/h (5 Bft) 95,74 %
30.05.2017 12:24 24,9 C 30,6 C 29,4 C 69 % 0 lf 1013,0 hPa 0,0 l/m 2 min 0 min 543 W/m 23,0 km/h (4 Bft) 89,36 %
30.05.2017 12:26 25,0 C 30,0 C 29,4 C 70 % 0 lf 1013,0 hPa 0,0 l/m 2 min 0 min 497 W/m 25,1 km/h (4 Bft) 97,87 %
30.05.2017 12:28 25,1 C 30,0 C 28,9 C 70 % 0 lf 1013,0 hPa 0,0 l/m 2 min 0 min 482 W/m 18,8 km/h (3 Bft) 97,87 %
30.05.2017 12:30 25,1 C 28,9 C 27,8 C 70 % 0 lf 1013,0 hPa 0,0 l/m 0 min 0 min 359 W/m 29,3 km/h (5 Bft) 95,65 %
30.05.2017 12:32 25,1 C 28,3 C 28,3 C 70 % 0 lf 1013,0 hPa 0,0 l/m 0 min 0 min 374 W/m 12,6 km/h (3 Bft) 97,87 %
30.05.2017 12:34 25,1 C 28,3 C 27,8 C 69 % 0 lf 1013,0 hPa 0,0 l/m 0 min 0 min 382 W/m 23,0 km/h (4 Bft) 97,87 %
30.05.2017 12:36 25,2 C 28,9 C 28,3 C 69 % 0 lf 1013,0 hPa 0,0 l/m 2 min 0 min 536 W/m 18,8 km/h (3 Bft) 97,87 %
30.05.2017 12:38 25,2 C 28,9 C 28,9 C 70 % 0 lf 1012,9 hPa 0,0 l/m 2 min 0 min 524 W/m 25,1 km/h (4 Bft) 95,74 %
30.05.2017 12:40 25,3 C 28,9 C 28,9 C 69 % 0 lf 1012,9 hPa 0,0 l/m 2 min 0 min 419 W/m 23,0 km/h (4 Bft) 97,83 %
30.05.2017 12:42 25,3 C 27,8 C 28,3 C 68 % 0 lf 1012,9 hPa 0,0 l/m 2 min 0 min 418 W/m 25,1 km/h (4 Bft) 91,49 %
30.05.2017 12:44 25,3 C 27,8 C 27,8 C 68 % 0 lf 1012,9 hPa 0,0 l/m 0 min 0 min 376 W/m 16,7 km/h (3 Bft) 97,87 %
30.05.2017 12:46 25,3 C 27,8 C 27,8 C 68 % 0 lf 1012,9 hPa 0,0 l/m 0 min 0 min 336 W/m 20,9 km/h (4 Bft) 95,74 %
30.05.2017 12:48 25,3 C 27,2 C 27,2 C 68 % 0 lf 1012,9 hPa 0,0 l/m 0 min 0 min 319 W/m 27,2 km/h (4 Bft) 97,87 %
30.05.2017 12:50 25,2 C 26,7 C 26,7 C 68 % 0 lf 1012,9 hPa 0,0 l/m 0 min 0 min 290 W/m 29,3 km/h (5 Bft) 93,62 %
30.05.2017 12:52 25,1 C 26,7 C 26,1 C 68 % 0 lf 1012,9 hPa 0,0 l/m 0 min 0 min 251 W/m 25,1 km/h (4 Bft) 93,62 %
30.05.2017 12:54 25,1 C 26,1 C 26,1 C 69 % 0 lf 1012,9 hPa 0,0 l/m 0 min 0 min 218 W/m 16,7 km/h (3 Bft) 95,65 %
30.05.2017 12:56 24,9 C 26,1 C 25,6 C 68 % 0 lf 1012,9 hPa 0,0 l/m 0 min 0 min 192 W/m 25,1 km/h (4 Bft) 95,74 %
30.05.2017 12:58 24,9 C 26,1 C 25,0 C 68 % 0 lf 1013,0 hPa 0,0 l/m 0 min 0 min 174 W/m 29,3 km/h (5 Bft) 93,62 %
30.05.2017 13:00 24,8 C 25,6 C 24,4 C 68 % 0 lf 1013,0 hPa 0,0 l/m 0 min 2 min 174 W/m 16,7 km/h (3 Bft) 95,74 %
30.05.2017 13:02 24,7 C 25,6 C 24,4 C 69 % 0 lf 1012,9 hPa 0,0 l/m 0 min 0 min 196 W/m 25,1 km/h (4 Bft) 95,74 %
30.05.2017 13:04 24,7 C 25,6 C 25,0 C 70 % 0 lf 1013,1 hPa 0,0 l/m 0 min 0 min 232 W/m 18,8 km/h (3 Bft) 93,48 %
30.05.2017 13:06 24,6 C 26,1 C 25,0 C 70 % 0 lf 1013,0 hPa 0,0 l/m 0 min 0 min 267 W/m 18,8 km/h (3 Bft) 95,74 %
30.05.2017 13:08 24,6 C 26,1 C 25,6 C 70 % 0 lf 1013,0 hPa 0,0 l/m 0 min 0 min 289 W/m 18,8 km/h (3 Bft) 93,62 %
30.05.2017 13:10 24,6 C 26,7 C 25,6 C 71 % 0 lf 1013,1 hPa 0,0 l/m 0 min 0 min 327 W/m 14,6 km/h (3 Bft) 93,62 %
30.05.2017 13:12 24,6 C 27,2 C 26,1 C 71 % 0 lf 1013,0 hPa 0,0 l/m 0 min 0 min 384 W/m 18,8 km/h (3 Bft) 97,87 %
30.05.2017 13:14 24,6 C 28,9 C 27,2 C 72 % 0 lf 1013,1 hPa 0,0 l/m 2 min 0 min 593 W/m 23,0 km/h (4 Bft) 97,87 %
30.05.2017 13:16 24,7 C 29,4 C 27,8 C 72 % 0 lf 1013,1 hPa 0,0 l/m 2 min 0 min 824 W/m 20,9 km/h (4 Bft) 91,30 %
30.05.2017 13:18 24,8 C 28,9 C 27,8 C 72 % 0 lf 1013,0 hPa 0,0 l/m 2 min 0 min 698 W/m 16,7 km/h (3 Bft) 97,87 %
30.05.2017 13:20 24,8 C 28,3 C 27,2 C 71 % 0 lf 1013,2 hPa 0,0 l/m 0 min 0 min 267 W/m 18,8 km/h (3 Bft) 95,74 %
30.05.2017 13:22 24,9 C 27,2 C 26,1 C 71 % 0 lf 1013,1 hPa 0,0 l/m 0 min 0 min 172 W/m 31,4 km/h (5 Bft) 95,74 %
30.05.2017 13:24 24,8 C 26,1 C 25,0 C 69 % 0 lf 1013,2 hPa 0,0 l/m 0 min 0 min 124 W/m 25,1 km/h (4 Bft) 95,74 %
30.05.2017 13:26 24,7 C 25,0 C 24,4 C 69 % 0 lf 1013,3 hPa 0,0 l/m 0 min 0 min 105 W/m 31,4 km/h (5 Bft) 95,74 %
30.05.2017 13:28 24,6 C 25,0 C 23,9 C 69 % 0 lf 1013,4 hPa 0,0 l/m 0 min 0 min 123 W/m 25,1 km/h (4 Bft) 95,65 %
30.05.2017 13:30 24,4 C 24,4 C 23,9 C 70 % 0 lf 1013,4 hPa 0,0 l/m 0 min 0 min 188 W/m 23,0 km/h (4 Bft) 95,74 %
30.05.2017 13:32 24,3 C 25,6 C 25,0 C 71 % 0 lf 1013,4 hPa 0,0 l/m 0 min 0 min 318 W/m 25,1 km/h (4 Bft) 91,49 %
30.05.2017 13:34 24,3 C 25,6 C 25,6 C 71 % 0 lf 1013,4 hPa 0,0 l/m 2 min 0 min 436 W/m 27,2 km/h (4 Bft) 100,00 %
30.05.2017 13:36 24,2 C 26,1 C 26,1 C 72 % 0 lf 1013,4 hPa 0,0 l/m 0 min 0 min 416 W/m 18,8 km/h (3 Bft) 95,12 %
30.05.2017 13:38 24,1 C 26,7 C 26,1 C 72 % 0 lf 1013,5 hPa 0,0 l/m 2 min 0 min 518 W/m 33,5 km/h (5 Bft) 97,87 %
30.05.2017 13:40 24,1 C 27,2 C 26,7 C 72 % 0 lf 1013,4 hPa 0,0 l/m 2 min 0 min 518 W/m 20,9 km/h (4 Bft) 100,00 %
30.05.2017 13:42 24,1 C 29,4 C 27,8 C 73 % 0 lf 1013,4 hPa 0,0 l/m 2 min 0 min 585 W/m 18,8 km/h (3 Bft) 97,87 %
30.05.2017 13:44 24,2 C 28,9 C 27,8 C 74 % 0 lf 1013,4 hPa 0,0 l/m 2 min 0 min 612 W/m 18,8 km/h (3 Bft) 95,74 %
30.05.2017 13:46 24,3 C 27,8 C 27,8 C 72 % 0 lf 1013,3 hPa 0,0 l/m 2 min 0 min 445 W/m 20,9 km/h (4 Bft) 93,48 %
30.05.2017 13:48 24,3 C 28,3 C 27,8 C 73 % 0 lf 1013,3 hPa 0,0 l/m 2 min 0 min 490 W/m 18,8 km/h (3 Bft) 95,74 %
30.05.2017 13:50 24,4 C 30,0 C 28,3 C 74 % 0 lf 1013,2 hPa 0,0 l/m 2 min 0 min 504 W/m 16,7 km/h (3 Bft) 97,92 %
30.05.2017 13:52 24,6 C 30,0 C 28,3 C 73 % 0 lf 1013,2 hPa 0,0 l/m 0 min 0 min 400 W/m 18,8 km/h (3 Bft) 93,62 %
30.05.2017 13:54 24,6 C 28,9 C 27,8 C 73 % 0 lf 1013,1 hPa 0,0 l/m 0 min 0 min 317 W/m 25,1 km/h (4 Bft) 91,49 %
30.05.2017 13:56 24,7 C 28,3 C 27,2 C 71 % 0 lf 1013,2 hPa 0,0 l/m 0 min 0 min 325 W/m 23,0 km/h (4 Bft) 95,74 %
30.05.2017 13:58 24,7 C 27,8 C 27,2 C 71 % 0 lf 1013,2 hPa 0,0 l/m 0 min 0 min 375 W/m 23,0 km/h (4 Bft) 93,48 %
30.05.2017 14:00 24,7 C 27,2 C 27,2 C 70 % 0 lf 1013,1 hPa 0,0 l/m 0 min 0 min 381 W/m 20,9 km/h (4 Bft) 91,49 %
30.05.2017 14:02 24,7 C 27,2 C 27,2 C 70 % 0 lf 1013,2 hPa 0,0 l/m 0 min 0 min 357 W/m 25,1 km/h (4 Bft) 91,49 %
30.05.2017 14:04 24,7 C 27,2 C 27,2 C 71 % 0 lf 1013,1 hPa 0,0 l/m 0 min 0 min 401 W/m 25,1 km/h (4 Bft) 95,74 %
30.05.2017 14:06 24,7 C 27,8 C 27,8 C 72 % 0 lf 1013,1 hPa 0,0 l/m 2 min 0 min 472 W/m 18,8 km/h (3 Bft) 93,62 %
30.05.2017 14:08 24,8 C 28,3 C 27,8 C 71 % 0 lf 1013,1 hPa 0,0 l/m 2 min 0 min 480 W/m 27,2 km/h (4 Bft) 95,74 %
30.05.2017 14:10 24,8 C 27,8 C 27,8 C 71 % 0 lf 1013,2 hPa 0,0 l/m 2 min 0 min 453 W/m 23,0 km/h (4 Bft) 95,65 %
30.05.2017 14:12 24,7 C 27,2 C 27,2 C 71 % 0 lf 1013,2 hPa 0,0 l/m 0 min 0 min 327 W/m 23,0 km/h (4 Bft) 95,74 %
30.05.2017 14:14 24,7 C 27,2 C 26,7 C 70 % 0 lf 1013,0 hPa 0,0 l/m 0 min 0 min 306 W/m 23,0 km/h (4 Bft) 95,74 %
30.05.2017 14:16 24,6 C 26,7 C 26,1 C 70 % 0 lf 1013,0 hPa 0,0 l/m 0 min 0 min 324 W/m 27,2 km/h (4 Bft) 93,62 %
30.05.2017 14:18 24,6 C 26,7 C 26,1 C 70 % 0 lf 1013,0 hPa 0,0 l/m 0 min 0 min 371 W/m 20,9 km/h (4 Bft) 97,87 %
30.05.2017 14:20 24,5 C 27,2 C 26,7 C 71 % 0 lf 1013,0 hPa 0,0 l/m 0 min 0 min 401 W/m 23,0 km/h (4 Bft) 91,49 %
30.05.2017 14:22 24,5 C 27,2 C 26,7 C 71 % 0 lf 1012,9 hPa 0,0 l/m 2 min 0 min 414 W/m 31,4 km/h (5 Bft) 95,74 %
30.05.2017 14:24 24,4 C 27,8 C 27,8 C 69 % 0 lf 1012,9 hPa 0,0 l/m 2 min 0 min 494 W/m 25,1 km/h (4 Bft) 93,75 %
30.05.2017 14:26 24,5 C 30,0 C 30,0 C 71 % 0 lf 1012,9 hPa 0,0 l/m 2 min 0 min 580 W/m 20,9 km/h (4 Bft) 95,74 %
30.05.2017 14:28 24,6 C 31,7 C 31,1 C 69 % 0 lf 1012,9 hPa 0,0 l/m 2 min 0 min 753 W/m 23,0 km/h (4 Bft) 95,74 %
30.05.2017 14:30 24,7 C 30,6 C 30,6 C 69 % 0 lf 1012,9 hPa 0,0 l/m 2 min 0 min 838 W/m 23,0 km/h (4 Bft) 89,58 %
30.05.2017 14:32 24,8 C 29,4 C 29,4 C 68 % 0 lf 1012,8 hPa 0,0 l/m 2 min 0 min 641 W/m 20,9 km/h (4 Bft) 93,48 %
30.05.2017 14:34 24,8 C 28,3 C 28,3 C 67 % 0 lf 1012,9 hPa 0,0 l/m 2 min 0 min 550 W/m 18,8 km/h (3 Bft) 91,67 %
30.05.2017 14:36 24,8 C 27,2 C 27,8 C 67 % 0 lf 1012,8 hPa 0,0 l/m 0 min 0 min 291 W/m 27,2 km/h (4 Bft) 94,44 %
30.05.2017 14:38 24,7 C 26,1 C 26,7 C 67 % 0 lf 1012,9 hPa 0,0 l/m 0 min 0 min 310 W/m 27,2 km/h (4 Bft) 87,93 %
30.05.2017 14:40 24,6 C 26,1 C 26,7 C 67 % 0 lf 1012,9 hPa 0,0 l/m 0 min 0 min 360 W/m 33,5 km/h (5 Bft) 93,62 %
30.05.2017 14:42 24,6 C 26,7 C 26,7 C 67 % 0 lf 1012,9 hPa 0,0 l/m 0 min 0 min 363 W/m 25,1 km/h (4 Bft) 97,14 %
30.05.2017 14:44 24,6 C 26,1 C 26,7 C 67 % 0 lf 1012,8 hPa 0,0 l/m 0 min 0 min 334 W/m 23,0 km/h (4 Bft) 95,74 %
30.05.2017 14:46 24,5 C 26,1 C 26,1 C 67 % 0 lf 1012,9 hPa 0,0 l/m 0 min 0 min 258 W/m 23,0 km/h (4 Bft) 96,61 %
30.05.2017 14:48 24,4 C 26,1 C 26,1 C 67 % 0 lf 1012,9 hPa 0,0 l/m 0 min 0 min 275 W/m 18,8 km/h (3 Bft) 97,87 %
30.05.2017 14:50 24,4 C 26,1 C 26,1 C 68 % 0 lf 1012,9 hPa 0,0 l/m 0 min 0 min 314 W/m 25,1 km/h (4 Bft) 95,65 %
30.05.2017 14:52 24,4 C 26,1 C 25,6 C 67 % 0 lf 1012,9 hPa 0,0 l/m 0 min 0 min 278 W/m 25,1 km/h (4 Bft) 97,87 %
30.05.2017 14:54 24,3 C 26,1 C 25,6 C 67 % 0 lf 1012,9 hPa 0,0 l/m 0 min 0 min 332 W/m 31,4 km/h (5 Bft) 95,74 %
30.05.2017 14:56 24,3 C 27,8 C 28,3 C 68 % 0 lf 1012,9 hPa 0,0 l/m 2 min 0 min 610 W/m 18,8 km/h (3 Bft) 97,87 %
30.05.2017 14:58 24,4 C 28,9 C 28,9 C 68 % 0 lf 1012,9 hPa 0,0 l/m 2 min 0 min 810 W/m 23,0 km/h (4 Bft) 95,74 %
30.05.2017 15:00 24,4 C 28,9 C 30,6 C 68 % 0 lf 1012,9 hPa 0,0 l/m 2 min 0 min 582 W/m 20,9 km/h (4 Bft) 93,62 %
30.05.2017 15:02 24,6 C 28,3 C 29,4 C 68 % 0 lf 1012,9 hPa 0,0 l/m 2 min 0 min 420 W/m 31,4 km/h (5 Bft) 95,65 %
30.05.2017 15:04 24,6 C 27,8 C 28,3 C 67 % 0 lf 1012,9 hPa 0,0 l/m 0 min 0 min 375 W/m 31,4 km/h (5 Bft) 97,87 %
30.05.2017 15:06 24,6 C 27,8 C 28,3 C 67 % 0 lf 1012,9 hPa 0,0 l/m 2 min 0 min 448 W/m 18,8 km/h (3 Bft) 91,43 %
30.05.2017 15:08 24,6 C 27,2 C 27,8 C 67 % 0 lf 1012,9 hPa 0,0 l/m 0 min 0 min 383 W/m 31,4 km/h (5 Bft) 100,00 %
30.05.2017 15:10 24,6 C 27,2 C 27,2 C 66 % 0 lf 1012,9 hPa 0,0 l/m 0 min 0 min 346 W/m 16,7 km/h (3 Bft) 100,00 %
30.05.2017 15:12 24,6 C 26,1 C 26,7 C 66 % 0 lf 1012,9 hPa 0,0 l/m 0 min 0 min 310 W/m 31,4 km/h (5 Bft) 95,74 %
30.05.2017 15:14 24,6 C 26,1 C 26,7 C 66 % 0 lf 1013,0 hPa 0,0 l/m 0 min 0 min 297 W/m 23,0 km/h (4 Bft) 95,74 %
30.05.2017 15:16 24,5 C 26,7 C 26,7 C 67 % 0 lf 1012,9 hPa 0,0 l/m 0 min 0 min 316 W/m 20,9 km/h (4 Bft) 97,87 %
30.05.2017 15:18 24,5 C 26,1 C 26,1 C 66 % 0 lf 1012,9 hPa 0,0 l/m 0 min 0 min 338 W/m 27,2 km/h (4 Bft) 100,00 %
30.05.2017 15:20 24,5 C 26,7 C 26,7 C 66 % 0 lf 1012,9 hPa 0,0 l/m 0 min 0 min 346 W/m 16,7 km/h (3 Bft) 100,00 %
30.05.2017 15:22 24,5 C 26,7 C 26,7 C 66 % 0 lf 1012,9 hPa 0,0 l/m 0 min 0 min 337 W/m 27,2 km/h (4 Bft) 97,87 %
30.05.2017 15:24 24,4 C 26,1 C 26,7 C 66 % 0 lf 1013,0 hPa 0,0 l/m 0 min 0 min 337 W/m 25,1 km/h (4 Bft) 97,87 %
30.05.2017 15:26 24,4 C 26,7 C 26,1 C 67 % 0 lf 1013,0 hPa 0,0 l/m 0 min 0 min 343 W/m 31,4 km/h (5 Bft) 97,87 %
30.05.2017 15:28 24,4 C 26,7 C 26,7 C 67 % 0 lf 1013,0 hPa 0,0 l/m 0 min 0 min 370 W/m 20,9 km/h (4 Bft) 97,83 %
30.05.2017 15:30 24,4 C 27,2 C 27,2 C 67 % 0 lf 1013,0 hPa 0,0 l/m 2 min 0 min 395 W/m 23,0 km/h (4 Bft) 95,74 %
30.05.2017 15:32 24,4 C 27,2 C 27,8 C 66 % 0 lf 1013,0 hPa 0,0 l/m 2 min 0 min 427 W/m 23,0 km/h (4 Bft) 93,62 %
30.05.2017 15:34 24,5 C 28,9 C 29,4 C 67 % 0 lf 1012,9 hPa 0,0 l/m 2 min 0 min 586 W/m 25,1 km/h (4 Bft) 97,87 %
30.05.2017 15:36 24,6 C 30,6 C 32,8 C 67 % 0 lf 1012,9 hPa 0,0 l/m 2 min 0 min 898 W/m 18,8 km/h (3 Bft) 97,87 %
30.05.2017 15:38 24,7 C 31,1 C 33,3 C 67 % 0 lf 1013,0 hPa 0,0 l/m 2 min 0 min 877 W/m 20,9 km/h (4 Bft) 95,74 %
30.05.2017 15:40 24,9 C 31,1 C 34,4 C 67 % 0 lf 1012,9 hPa 0,0 l/m 2 min 0 min 828 W/m 20,9 km/h (4 Bft) 95,65 %
30.05.2017 15:42 25,1 C 31,1 C 33,3 C 67 % 0 lf 1012,9 hPa 0,0 l/m 2 min 0 min 811 W/m 23,0 km/h (4 Bft) 97,87 %
30.05.2017 15:44 25,1 C 29,4 C 31,7 C 65 % 0 lf 1012,9 hPa 0,0 l/m 2 min 0 min 696 W/m 18,8 km/h (3 Bft) 97,87 %
30.05.2017 15:46 25,2 C 29,4 C 32,2 C 64 % 0 lf 1013,0 hPa 0,0 l/m 0 min 0 min 257 W/m 27,2 km/h (4 Bft) 91,49 %
30.05.2017 15:48 25,3 C 30,0 C 32,8 C 64 % 0 lf 1013,0 hPa 0,0 l/m 2 min 0 min 780 W/m 23,0 km/h (4 Bft) 95,74 %
30.05.2017 15:50 25,5 C 30,6 C 33,9 C 63 % 0 lf 1013,0 hPa 0,0 l/m 2 min 0 min 815 W/m 23,0 km/h (4 Bft) 93,62 %
30.05.2017 15:52 25,7 C 31,1 C 34,4 C 64 % 0 lf 1013,0 hPa 0,0 l/m 2 min 0 min 815 W/m 12,6 km/h (3 Bft) 97,83 %
30.05.2017 15:54 25,8 C 31,7 C 35,6 C 63 % 0 lf 1013,0 hPa 0,0 l/m 2 min 0 min 803 W/m 27,2 km/h (4 Bft) 95,74 %
30.05.2017 15:56 25,9 C 31,7 C 36,7 C 64 % 0 lf 1013,0 hPa 0,0 l/m 2 min 0 min 830 W/m 18,8 km/h (3 Bft) 97,87 %
30.05.2017 15:58 26,2 C 32,2 C 37,2 C 65 % 0 lf 1013,0 hPa 0,0 l/m 2 min 0 min 824 W/m 16,7 km/h (3 Bft) 97,87 %
30.05.2017 16:00 26,3 C 30,6 C 34,4 C 62 % 0 lf 1013,0 hPa 0,0 l/m 2 min 0 min 805 W/m 20,9 km/h (4 Bft) 95,74 %
30.05.2017 16:02 26,3 C 28,9 C 32,2 C 61 % 0 lf 1013,0 hPa 0,0 l/m 2 min 0 min 438 W/m 25,1 km/h (4 Bft) 95,74 %
30.05.2017 16:04 26,3 C 28,3 C 31,1 C 60 % 0 lf 1013,1 hPa 0,0 l/m 0 min 0 min 255 W/m 25,1 km/h (4 Bft) 97,83 %
30.05.2017 16:06 26,2 C 28,3 C 31,1 C 60 % 0 lf 1013,1 hPa 0,0 l/m 2 min 0 min 528 W/m 29,3 km/h (5 Bft) 93,62 %
30.05.2017 16:08 26,2 C 28,3 C 32,8 C 61 % 0 lf 1013,1 hPa 0,0 l/m 2 min 0 min 540 W/m 25,1 km/h (4 Bft) 97,87 %
30.05.2017 16:10 26,1 C 27,8 C 30,0 C 60 % 0 lf 1013,1 hPa 0,0 l/m 2 min 0 min 424 W/m 20,9 km/h (4 Bft) 97,87 %
30.05.2017 16:12 26,0 C 27,2 C 28,9 C 60 % 0 lf 1013,1 hPa 0,0 l/m 0 min 0 min 237 W/m 18,8 km/h (3 Bft) 100,00 %
30.05.2017 16:14 25,9 C 26,7 C 27,8 C 60 % 0 lf 1013,2 hPa 0,0 l/m 0 min 0 min 226 W/m 18,8 km/h (3 Bft) 95,74 %
30.05.2017 16:16 25,8 C 26,7 C 27,2 C 60 % 0 lf 1013,1 hPa 0,0 l/m 0 min 0 min 206 W/m 16,7 km/h (3 Bft) 100,00 %
30.05.2017 16:18 25,7 C 26,7 C 27,8 C 61 % 0 lf 1013,1 hPa 0,0 l/m 0 min 0 min 232 W/m 10,5 km/h (2 Bft) 97,87 %
30.05.2017 16:20 25,7 C 26,7 C 27,8 C 62 % 0 lf 1013,1 hPa 0,0 l/m 0 min 0 min 208 W/m 16,7 km/h (3 Bft) 95,74 %
30.05.2017 16:22 25,6 C 26,1 C 27,2 C 62 % 0 lf 1013,1 hPa 0,0 l/m 0 min 0 min 180 W/m 14,6 km/h (3 Bft) 97,87 %
30.05.2017 16:24 25,6 C 26,1 C 26,7 C 62 % 0 lf 1013,2 hPa 0,0 l/m 0 min 0 min 223 W/m 18,8 km/h (3 Bft) 100,00 %
30.05.2017 16:26 25,4 C 26,7 C 26,7 C 62 % 0 lf 1013,2 hPa 0,0 l/m 0 min 0 min 271 W/m 20,9 km/h (4 Bft) 100,00 %
30.05.2017 16:28 25,4 C 27,2 C 30,0 C 63 % 0 lf 1013,1 hPa 0,0 l/m 0 min 0 min 292 W/m 12,6 km/h (3 Bft) 97,83 %
30.05.2017 16:30 25,5 C 27,8 C 31,7 C 63 % 0 lf 1013,1 hPa 0,0 l/m 2 min 0 min 840 W/m 23,0 km/h (4 Bft) 100,00 %
30.05.2017 16:32 25,6 C 27,8 C 32,8 C 63 % 0 lf 1013,1 hPa 0,0 l/m 2 min 0 min 750 W/m 20,9 km/h (4 Bft) 95,74 %
30.05.2017 16:34 25,7 C 27,2 C 31,1 C 62 % 0 lf 1013,1 hPa 0,0 l/m 2 min 0 min 708 W/m 25,1 km/h (4 Bft) 97,87 %
30.05.2017 16:36 25,6 C 26,1 C 28,3 C 61 % 0 lf 1013,1 hPa 0,0 l/m 2 min 0 min 426 W/m 31,4 km/h (5 Bft) 97,87 %
30.05.2017 16:38 25,6 C 26,1 C 27,8 C 60 % 0 lf 1013,1 hPa 0,0 l/m 0 min 0 min 282 W/m 29,3 km/h (5 Bft) 97,87 %
30.05.2017 16:40 25,5 C 26,7 C 27,8 C 61 % 0 lf 1013,0 hPa 0,0 l/m 2 min 0 min 453 W/m 29,3 km/h (5 Bft) 97,83 %
30.05.2017 16:42 25,6 C 27,2 C 27,8 C 61 % 0 lf 1013,0 hPa 0,0 l/m 2 min 0 min 749 W/m 25,1 km/h (4 Bft) 95,74 %
30.05.2017 16:44 25,6 C 26,7 C 27,8 C 61 % 0 lf 1013,0 hPa 0,0 l/m 2 min 0 min 702 W/m 29,3 km/h (5 Bft) 95,74 %
30.05.2017 16:46 25,5 C 26,1 C 26,7 C 61 % 0 lf 1013,0 hPa 0,0 l/m 2 min 0 min 473 W/m 27,2 km/h (4 Bft) 95,74 %
30.05.2017 16:48 25,4 C 26,1 C 26,7 C 61 % 0 lf 1012,9 hPa 0,0 l/m 0 min 0 min 320 W/m 23,0 km/h (4 Bft) 95,74 %
30.05.2017 16:50 25,4 C 26,1 C 27,2 C 62 % 0 lf 1013,0 hPa 0,0 l/m 2 min 0 min 710 W/m 29,3 km/h (5 Bft) 94,83 %
30.05.2017 16:52 25,4 C 26,7 C 27,2 C 62 % 0 lf 1013,0 hPa 0,0 l/m 2 min 0 min 656 W/m 29,3 km/h (5 Bft) 97,14 %
30.05.2017 16:54 25,4 C 26,7 C 27,2 C 61 % 0 lf 1013,0 hPa 0,0 l/m 2 min 0 min 687 W/m 29,3 km/h (5 Bft) 97,87 %
30.05.2017 16:56 25,4 C 26,1 C 26,7 C 62 % 0 lf 1012,9 hPa 0,0 l/m 2 min 0 min 515 W/m 23,0 km/h (4 Bft) 91,49 %
30.05.2017 16:58 25,4 C 25,6 C 26,1 C 61 % 0 lf 1013,0 hPa 0,0 l/m 0 min 0 min 148 W/m 23,0 km/h (4 Bft) 89,36 %
30.05.2017 17:00 25,3 C 25,6 C 25,6 C 61 % 0 lf 1013,0 hPa 0,0 l/m 0 min 0 min 142 W/m 18,8 km/h (3 Bft) 95,74 %
30.05.2017 17:02 25,2 C 25,6 C 25,0 C 61 % 0 lf 1013,1 hPa 0,0 l/m 0 min 0 min 152 W/m 27,2 km/h (4 Bft) 97,83 %
30.05.2017 17:04 25,1 C 25,0 C 25,0 C 61 % 0 lf 1013,1 hPa 0,0 l/m 0 min 0 min 192 W/m 31,4 km/h (5 Bft) 95,74 %
30.05.2017 17:06 25,1 C 25,6 C 25,6 C 61 % 0 lf 1013,1 hPa 0,0 l/m 2 min 0 min 450 W/m 31,4 km/h (5 Bft) 93,62 %
30.05.2017 17:08 25,0 C 26,1 C 25,6 C 62 % 0 lf 1013,1 hPa 0,0 l/m 2 min 0 min 654 W/m 29,3 km/h (5 Bft) 93,62 %
30.05.2017 17:10 25,0 C 26,1 C 26,1 C 63 % 0 lf 1013,1 hPa 0,0 l/m 2 min 0 min 615 W/m 27,2 km/h (4 Bft) 93,62 %
30.05.2017 17:12 25,1 C 26,1 C 25,6 C 63 % 0 lf 1013,1 hPa 0,0 l/m 0 min 0 min 289 W/m 20,9 km/h (4 Bft) 93,62 %
30.05.2017 17:14 25,1 C 25,6 C 25,0 C 62 % 0 lf 1013,1 hPa 0,0 l/m 0 min 0 min 133 W/m 20,9 km/h (4 Bft) 93,48 %
30.05.2017 17:16 25,1 C 25,6 C 25,0 C 62 % 0 lf 1013,1 hPa 0,0 l/m 0 min 0 min 233 W/m 16,7 km/h (3 Bft) 97,87 %
30.05.2017 17:18 25,1 C 26,1 C 25,6 C 62 % 0 lf 1013,1 hPa 0,0 l/m 2 min 0 min 653 W/m 23,0 km/h (4 Bft) 95,74 %
30.05.2017 17:20 25,1 C 26,7 C 25,6 C 62 % 0 lf 1013,1 hPa 0,0 l/m 2 min 0 min 652 W/m 20,9 km/h (4 Bft) 93,62 %
30.05.2017 17:22 25,1 C 26,1 C 25,6 C 61 % 0 lf 1013,2 hPa 0,0 l/m 2 min 0 min 637 W/m 25,1 km/h (4 Bft) 91,49 %
30.05.2017 17:24 25,1 C 26,1 C 25,0 C 61 % 0 lf 1013,2 hPa 0,0 l/m 2 min 0 min 317 W/m 23,0 km/h (4 Bft) 93,62 %
30.05.2017 17:26 25,1 C 26,1 C 25,6 C 62 % 0 lf 1013,2 hPa 0,0 l/m 0 min 0 min 158 W/m 14,6 km/h (3 Bft) 93,48 %
30.05.2017 17:28 25,1 C 26,7 C 25,6 C 62 % 0 lf 1013,2 hPa 0,0 l/m 0 min 0 min 283 W/m 16,7 km/h (3 Bft) 95,74 %
30.05.2017 17:30 25,2 C 27,2 C 25,6 C 62 % 0 lf 1013,3 hPa 0,0 l/m 2 min 0 min 652 W/m 20,9 km/h (4 Bft) 91,49 %
30.05.2017 17:32 25,2 C 27,2 C 26,1 C 62 % 0 lf 1013,3 hPa 0,0 l/m 2 min 0 min 612 W/m 20,9 km/h (4 Bft) 91,49 %
30.05.2017 17:34 25,3 C 27,2 C 26,1 C 62 % 0 lf 1013,4 hPa 0,0 l/m 2 min 0 min 600 W/m 25,1 km/h (4 Bft) 93,62 %
30.05.2017 17:36 25,3 C 26,7 C 25,6 C 62 % 0 lf 1013,3 hPa 0,0 l/m 2 min 0 min 629 W/m 23,0 km/h (4 Bft) 95,74 %
30.05.2017 17:38 25,3 C 26,7 C 25,6 C 62 % 0 lf 1013,4 hPa 0,0 l/m 2 min 0 min 630 W/m 27,2 km/h (4 Bft) 93,48 %
30.05.2017 17:40 25,3 C 26,7 C 25,0 C 62 % 0 lf 1013,4 hPa 0,0 l/m 2 min 0 min 619 W/m 23,0 km/h (4 Bft) 95,74 %
30.05.2017 17:42 25,3 C 26,1 C 25,0 C 61 % 0 lf 1013,4 hPa 0,0 l/m 2 min 0 min 368 W/m 25,1 km/h (4 Bft) 93,62 %
30.05.2017 17:44 25,3 C 26,1 C 25,0 C 61 % 0 lf 1013,4 hPa 0,0 l/m 0 min 0 min 258 W/m 20,9 km/h (4 Bft) 95,74 %
30.05.2017 17:46 25,2 C 26,1 C 25,0 C 61 % 0 lf 1013,4 hPa 0,0 l/m 0 min 0 min 234 W/m 20,9 km/h (4 Bft) 95,74 %
30.05.2017 17:48 25,2 C 25,6 C 25,0 C 60 % 0 lf 1013,5 hPa 0,0 l/m 0 min 0 min 195 W/m 29,3 km/h (5 Bft) 93,62 %
30.05.2017 17:50 25,1 C 26,1 C 25,0 C 60 % 0 lf 1013,5 hPa 0,0 l/m 2 min 0 min 382 W/m 29,3 km/h (5 Bft) 94,83 %
30.05.2017 17:52 25,1 C 26,1 C 25,0 C 60 % 0 lf 1013,5 hPa 0,0 l/m 2 min 0 min 559 W/m 25,1 km/h (4 Bft) 97,14 %
30.05.2017 17:54 25,1 C 26,1 C 25,0 C 60 % 0 lf 1013,5 hPa 0,0 l/m 0 min 0 min 199 W/m 23,0 km/h (4 Bft) 91,49 %
30.05.2017 17:56 25,0 C 25,6 C 24,4 C 59 % 0 lf 1013,6 hPa 0,0 l/m 0 min 0 min 206 W/m 27,2 km/h (4 Bft) 93,62 %
30.05.2017 17:58 24,9 C 25,6 C 24,4 C 59 % 0 lf 1013,7 hPa 0,0 l/m 0 min 0 min 240 W/m 25,1 km/h (4 Bft) 93,62 %
30.05.2017 18:00 24,9 C 26,1 C 25,0 C 61 % 0 lf 1013,7 hPa 0,0 l/m 2 min 0 min 331 W/m 27,2 km/h (4 Bft) 93,48 %
30.05.2017 18:02 24,8 C 26,1 C 25,0 C 61 % 0 lf 1013,7 hPa 0,0 l/m 2 min 0 min 577 W/m 29,3 km/h (5 Bft) 96,43 %
30.05.2017 18:04 24,8 C 26,1 C 25,0 C 60 % 0 lf 1013,8 hPa 0,0 l/m 2 min 0 min 589 W/m 27,2 km/h (4 Bft) 86,96 %
30.05.2017 18:06 24,8 C 26,1 C 24,4 C 61 % 0 lf 1013,8 hPa 0,0 l/m 2 min 0 min 589 W/m 20,9 km/h (4 Bft) 93,62 %
30.05.2017 18:10 24,7 C 25,6 C 24,4 C 61 % 0 lf 1013,7 hPa 0,0 l/m 4 min 0 min 503 W/m 20,9 km/h (4 Bft) 96,88 %
30.05.2017 18:12 24,7 C 25,6 C 23,9 C 61 % 0 lf 1013,7 hPa 0,0 l/m 2 min 0 min 252 W/m 25,1 km/h (4 Bft) 97,87 %
30.05.2017 18:14 24,6 C 25,0 C 23,9 C 61 % 0 lf 1013,8 hPa 0,0 l/m 2 min 0 min 386 W/m 29,3 km/h (5 Bft) 93,62 %
30.05.2017 18:16 24,6 C 25,6 C 23,9 C 61 % 0 lf 1013,7 hPa 0,0 l/m 2 min 0 min 493 W/m 27,2 km/h (4 Bft) 97,83 %
30.05.2017 18:18 24,5 C 25,6 C 23,9 C 61 % 0 lf 1013,7 hPa 0,0 l/m 2 min 0 min 461 W/m 25,1 km/h (4 Bft) 95,74 %
30.05.2017 18:20 24,5 C 25,6 C 23,9 C 62 % 0 lf 1013,7 hPa 0,0 l/m 2 min 0 min 419 W/m 29,3 km/h (5 Bft) 95,74 %
30.05.2017 18:22 24,4 C 25,0 C 23,9 C 61 % 0 lf 1013,8 hPa 0,0 l/m 2 min 0 min 431 W/m 25,1 km/h (4 Bft) 97,87 %
30.05.2017 18:24 24,4 C 25,0 C 23,9 C 61 % 0 lf 1014,0 hPa 0,0 l/m 2 min 0 min 428 W/m 27,2 km/h (4 Bft) 97,87 %
30.05.2017 18:26 24,3 C 24,4 C 23,3 C 61 % 0 lf 1014,0 hPa 0,0 l/m 2 min 0 min 225 W/m 27,2 km/h (4 Bft) 95,65 %
30.05.2017 18:28 24,3 C 24,4 C 23,3 C 61 % 0 lf 1013,9 hPa 0,0 l/m 2 min 0 min 325 W/m 20,9 km/h (4 Bft) 97,87 %
30.05.2017 18:30 24,2 C 24,4 C 23,3 C 62 % 0 lf 1014,0 hPa 0,0 l/m 2 min 0 min 278 W/m 31,4 km/h (5 Bft) 95,74 %
30.05.2017 18:32 24,2 C 24,4 C 23,9 C 62 % 0 lf 1013,9 hPa 0,0 l/m 0 min 0 min 192 W/m 31,4 km/h (5 Bft) 97,87 %
30.05.2017 18:34 24,1 C 24,4 C 23,9 C 62 % 0 lf 1014,0 hPa 0,0 l/m 0 min 0 min 188 W/m 23,0 km/h (4 Bft) 95,74 %
30.05.2017 18:36 24,1 C 25,0 C 23,9 C 62 % 0 lf 1014,1 hPa 0,0 l/m 2 min 0 min 263 W/m 25,1 km/h (4 Bft) 93,62 %
30.05.2017 18:38 24,0 C 25,0 C 23,9 C 62 % 0 lf 1014,1 hPa 0,0 l/m 2 min 0 min 389 W/m 23,0 km/h (4 Bft) 95,65 %
30.05.2017 18:40 23,9 C 24,4 C 23,3 C 62 % 0 lf 1014,1 hPa 0,0 l/m 0 min 0 min 144 W/m 27,2 km/h (4 Bft) 100,00 %
30.05.2017 18:42 23,9 C 24,4 C 23,3 C 63 % 0 lf 1014,1 hPa 0,0 l/m 0 min 0 min 132 W/m 14,6 km/h (3 Bft) 91,49 %
30.05.2017 18:44 23,9 C 24,4 C 23,3 C 63 % 0 lf 1014,0 hPa 0,0 l/m 0 min 0 min 156 W/m 12,6 km/h (3 Bft) 97,87 %
30.05.2017 18:46 23,9 C 24,4 C 23,3 C 64 % 0 lf 1014,1 hPa 0,0 l/m 0 min 0 min 166 W/m 16,7 km/h (3 Bft) 95,74 %
30.05.2017 18:48 23,8 C 24,4 C 23,9 C 63 % 0 lf 1014,1 hPa 0,0 l/m 0 min 0 min 157 W/m 20,9 km/h (4 Bft) 93,62 %
30.05.2017 18:50 23,8 C 23,9 C 23,3 C 63 % 0 lf 1014,3 hPa 0,0 l/m 0 min 0 min 148 W/m 18,8 km/h (3 Bft) 97,87 %
30.05.2017 18:52 23,7 C 23,9 C 23,3 C 63 % 0 lf 1014,3 hPa 0,0 l/m 0 min 0 min 144 W/m 25,1 km/h (4 Bft) 95,74 %
30.05.2017 18:54 23,7 C 23,9 C 23,3 C 64 % 0 lf 1014,3 hPa 0,0 l/m 0 min 0 min 148 W/m 23,0 km/h (4 Bft) 97,87 %
30.05.2017 18:56 23,6 C 23,9 C 23,3 C 64 % 0 lf 1014,3 hPa 0,0 l/m 0 min 0 min 165 W/m 20,9 km/h (4 Bft) 95,74 %
30.05.2017 18:58 23,5 C 23,9 C 22,8 C 64 % 0 lf 1014,3 hPa 0,0 l/m 0 min 0 min 132 W/m 27,2 km/h (4 Bft) 93,62 %
30.05.2017 19:00 23,4 C 23,3 C 22,8 C 63 % 0 lf 1014,4 hPa 0,0 l/m 0 min 0 min 122 W/m 27,2 km/h (4 Bft) 93,62 %
30.05.2017 19:02 23,3 C 23,3 C 22,8 C 64 % 0 lf 1014,5 hPa 0,0 l/m 0 min 0 min 117 W/m 23,0 km/h (4 Bft) 97,87 %
30.05.2017 19:04 23,2 C 23,3 C 22,2 C 63 % 0 lf 1014,6 hPa 0,0 l/m 0 min 0 min 119 W/m 29,3 km/h (5 Bft) 87,23 %
30.05.2017 19:06 23,1 C 23,3 C 22,2 C 63 % 0 lf 1014,6 hPa 0,0 l/m 0 min 0 min 142 W/m 20,9 km/h (4 Bft) 87,23 %
30.05.2017 19:08 23,1 C 23,3 C 22,8 C 63 % 0 lf 1014,6 hPa 0,0 l/m 2 min 0 min 173 W/m 25,1 km/h (4 Bft) 97,83 %
30.05.2017 19:10 23,0 C 23,3 C 22,8 C 63 % 0 lf 1014,7 hPa 0,0 l/m 2 min 0 min 194 W/m 27,2 km/h (4 Bft) 95,74 %
30.05.2017 19:12 22,9 C 23,3 C 22,8 C 64 % 0 lf 1014,6 hPa 0,0 l/m 2 min 0 min 298 W/m 27,2 km/h (4 Bft) 97,87 %
30.05.2017 19:14 22,9 C 23,3 C 22,2 C 64 % 0 lf 1014,6 hPa 0,0 l/m 2 min 0 min 249 W/m 25,1 km/h (4 Bft) 93,62 %
30.05.2017 19:16 22,8 C 22,8 C 22,2 C 64 % 0 lf 1014,7 hPa 0,0 l/m 0 min 0 min 122 W/m 31,4 km/h (5 Bft) 97,87 %
30.05.2017 19:18 22,7 C 22,8 C 22,2 C 64 % 0 lf 1014,7 hPa 0,0 l/m 0 min 0 min 132 W/m 20,9 km/h (4 Bft) 100,00 %
30.05.2017 19:20 22,7 C 22,8 C 22,2 C 64 % 0 lf 1014,7 hPa 0,0 l/m 0 min 0 min 138 W/m 18,8 km/h (3 Bft) 100,00 %
30.05.2017 19:22 22,6 C 22,8 C 21,7 C 64 % 0 lf 1014,7 hPa 0,0 l/m 0 min 0 min 135 W/m 23,0 km/h (4 Bft) 97,87 %
30.05.2017 19:24 22,6 C 22,8 C 21,7 C 65 % 0 lf 1014,8 hPa 0,0 l/m 0 min 0 min 115 W/m 20,9 km/h (4 Bft) 100,00 %
30.05.2017 19:26 22,5 C 22,8 C 18,9 C 65 % 0 lf 1014,7 hPa 0,0 l/m 0 min 2 min 108 W/m 25,1 km/h (4 Bft) 87,23 %
30.05.2017 19:28 22,4 C 22,2 C 17,2 C 65 % 0 lf 1014,7 hPa 0,0 l/m 0 min 0 min 114 W/m 29,3 km/h (5 Bft) 95,74 %
30.05.2017 19:30 22,3 C 22,2 C 17,2 C 66 % 0 lf 1014,8 hPa 0,0 l/m 0 min 0 min 132 W/m 31,4 km/h (5 Bft) 91,30 %
30.05.2017 19:32 22,2 C 22,2 C 16,7 C 67 % 0 lf 1014,7 hPa 0,0 l/m 2 min 0 min 150 W/m 20,9 km/h (4 Bft) 97,87 %
30.05.2017 19:34 22,1 C 22,2 C 16,7 C 67 % 0 lf 1014,8 hPa 0,0 l/m 2 min 0 min 147 W/m 25,1 km/h (4 Bft) 93,62 %
30.05.2017 19:36 22,0 C 21,7 C 16,1 C 67 % 0 lf 1014,8 hPa 0,0 l/m 0 min 0 min 120 W/m 20,9 km/h (4 Bft) 91,49 %
30.05.2017 19:38 21,9 C 22,2 C 16,7 C 67 % 0 lf 1014,8 hPa 0,0 l/m 2 min 0 min 160 W/m 16,7 km/h (3 Bft) 95,74 %
30.05.2017 19:40 21,9 C 21,7 C 16,7 C 68 % 0 lf 1014,8 hPa 0,0 l/m 2 min 0 min 232 W/m 16,7 km/h (3 Bft) 97,87 %
30.05.2017 19:42 21,8 C 21,7 C 16,7 C 68 % 0 lf 1014,8 hPa 0,0 l/m 0 min 0 min 126 W/m 14,6 km/h (3 Bft) 100,00 %
30.05.2017 19:44 21,8 C 21,7 C 17,2 C 68 % 0 lf 1014,8 hPa 0,0 l/m 0 min 0 min 125 W/m 16,7 km/h (3 Bft) 97,87 %
30.05.2017 19:46 21,8 C 21,7 C 17,8 C 68 % 0 lf 1014,8 hPa 0,0 l/m 0 min 0 min 120 W/m 20,9 km/h (4 Bft) 100,00 %
30.05.2017 19:48 21,7 C 21,7 C 18,3 C 69 % 0 lf 1014,9 hPa 0,0 l/m 2 min 0 min 182 W/m 18,8 km/h (3 Bft) 97,87 %
30.05.2017 19:50 21,7 C 21,7 C 18,9 C 68 % 0 lf 1014,9 hPa 0,0 l/m 2 min 0 min 124 W/m 18,8 km/h (3 Bft) 97,87 %
30.05.2017 19:52 21,7 C 21,7 C 18,9 C 68 % 0 lf 1014,9 hPa 0,0 l/m 0 min 0 min 100 W/m 18,8 km/h (3 Bft) 100,00 %
30.05.2017 19:54 21,6 C 21,7 C 19,4 C 68 % 0 lf 1015,1 hPa 0,0 l/m 2 min 0 min 123 W/m 18,8 km/h (3 Bft) 97,87 %
30.05.2017 19:56 21,6 C 21,7 C 19,4 C 68 % 0 lf 1015,0 hPa 0,0 l/m 2 min 0 min 160 W/m 20,9 km/h (4 Bft) 92,68 %
30.05.2017 19:58 21,5 C 21,7 C 19,4 C 68 % 0 lf 1015,1 hPa 0,0 l/m 0 min 0 min 104 W/m 27,2 km/h (4 Bft) 97,87 %
30.05.2017 20:00 21,4 C 21,7 C 19,4 C 68 % 0 lf 1015,1 hPa 0,0 l/m 2 min 0 min 124 W/m 20,9 km/h (4 Bft) 100,00 %
30.05.2017 20:02 21,4 C 21,7 C 19,4 C 68 % 0 lf 1015,1 hPa 0,0 l/m 2 min 0 min 153 W/m 10,5 km/h (2 Bft) 95,65 %
30.05.2017 20:04 21,4 C 21,1 C 19,4 C 68 % 0 lf 1015,1 hPa 0,0 l/m 2 min 0 min 147 W/m 20,9 km/h (4 Bft) 87,23 %
30.05.2017 20:06 21,3 C 21,1 C 19,4 C 67 % 0 lf 1015,1 hPa 0,0 l/m 2 min 0 min 138 W/m 20,9 km/h (4 Bft) 97,87 %
30.05.2017 20:08 21,3 C 21,1 C 19,4 C 67 % 0 lf 1015,1 hPa 0,0 l/m 2 min 0 min 135 W/m 18,8 km/h (3 Bft) 97,87 %
30.05.2017 20:10 21,3 C 21,1 C 19,4 C 66 % 0 lf 1015,1 hPa 0,0 l/m 2 min 0 min 119 W/m 18,8 km/h (3 Bft) 100,00 %
30.05.2017 20:12 21,2 C 21,1 C 19,4 C 66 % 0 lf 1015,2 hPa 0,0 l/m 2 min 0 min 108 W/m 20,9 km/h (4 Bft) 89,13 %
30.05.2017 20:14 21,2 C 21,1 C 19,4 C 67 % 0 lf 1015,2 hPa 0,0 l/m 2 min 0 min 103 W/m 10,5 km/h (2 Bft) 95,74 %
30.05.2017 20:16 21,2 C 21,1 C 18,9 C 68 % 0 lf 1015,2 hPa 0,0 l/m 2 min 0 min 94 W/m 10,5 km/h (2 Bft) 97,87 %
30.05.2017 20:18 21,2 C 21,1 C 18,9 C 68 % 0 lf 1015,3 hPa 0,0 l/m 0 min 0 min 73 W/m 18,8 km/h (3 Bft) 100,00 %
30.05.2017 20:20 21,1 C 21,1 C 18,9 C 69 % 0 lf 1015,3 hPa 0,0 l/m 2 min 0 min 85 W/m 14,6 km/h (3 Bft) 93,62 %
30.05.2017 20:22 21,1 C 21,1 C 18,9 C 68 % 0 lf 1015,3 hPa 0,0 l/m 0 min 0 min 61 W/m 16,7 km/h (3 Bft) 93,62 %
30.05.2017 20:24 21,1 C 20,6 C 18,9 C 68 % 0 lf 1015,3 hPa 0,0 l/m 0 min 0 min 53 W/m 14,6 km/h (3 Bft) 93,48 %
30.05.2017 20:26 21,0 C 20,6 C 18,9 C 68 % 0 lf 1015,5 hPa 0,0 l/m 2 min 0 min 75 W/m 31,4 km/h (5 Bft) 95,74 %
30.05.2017 20:28 21,0 C 20,6 C 18,9 C 67 % 0 lf 1015,4 hPa 0,0 l/m 2 min 0 min 75 W/m 18,8 km/h (3 Bft) 93,75 %
30.05.2017 20:30 20,9 C 20,6 C 18,9 C 67 % 0 lf 1015,4 hPa 0,0 l/m 0 min 0 min 53 W/m 23,0 km/h (4 Bft) 95,74 %
30.05.2017 20:32 20,8 C 20,6 C 18,9 C 66 % 0 lf 1015,4 hPa 0,0 l/m 0 min 0 min 47 W/m 23,0 km/h (4 Bft) 91,49 %
30.05.2017 20:34 20,8 C 20,6 C 18,9 C 65 % 0 lf 1015,5 hPa 0,0 l/m 0 min 0 min 46 W/m 23,0 km/h (4 Bft) 89,36 %
30.05.2017 20:36 20,8 C 20,6 C 18,9 C 66 % 0 lf 1015,6 hPa 0,0 l/m 0 min 0 min 49 W/m 18,8 km/h (3 Bft) 93,48 %
30.05.2017 20:38 20,7 C 20,6 C 18,9 C 66 % 0 lf 1015,6 hPa 0,0 l/m 0 min 0 min 48 W/m 27,2 km/h (4 Bft) 85,11 %
30.05.2017 20:40 20,7 C 20,6 C 18,9 C 66 % 0 lf 1015,6 hPa 0,0 l/m 0 min 0 min 43 W/m 27,2 km/h (4 Bft) 89,36 %
30.05.2017 20:42 20,6 C 20,6 C 18,9 C 65 % 0 lf 1015,6 hPa 0,0 l/m 0 min 0 min 37 W/m 25,1 km/h (4 Bft) 89,36 %
30.05.2017 20:44 20,6 C 20,6 C 18,9 C 65 % 0 lf 1015,6 hPa 0,0 l/m 0 min 0 min 33 W/m 23,0 km/h (4 Bft) 93,62 %
30.05.2017 20:46 20,6 C 20,6 C 18,9 C 65 % 0 lf 1015,6 hPa 0,0 l/m 0 min 0 min 29 W/m 20,9 km/h (4 Bft) 91,49 %
30.05.2017 20:48 20,6 C 20,0 C 18,3 C 66 % 0 lf 1015,6 hPa 0,0 l/m 0 min 0 min 25 W/m 27,2 km/h (4 Bft) 93,48 %
30.05.2017 20:50 20,5 C 20,0 C 18,3 C 66 % 0 lf 1015,6 hPa 0,0 l/m 0 min 0 min 24 W/m 20,9 km/h (4 Bft) 89,36 %
30.05.2017 20:52 20,4 C 20,0 C 18,3 C 66 % 0 lf 1015,6 hPa 0,0 l/m 0 min 0 min 21 W/m 18,8 km/h (3 Bft) 91,49 %
30.05.2017 20:54 20,4 C 20,0 C 18,3 C 66 % 0 lf 1015,7 hPa 0,0 l/m 0 min 0 min 19 W/m 20,9 km/h (4 Bft) 91,49 %
30.05.2017 20:56 20,4 C 20,0 C 18,3 C 66 % 0 lf 1015,7 hPa 0,0 l/m 0 min 0 min 19 W/m 12,6 km/h (3 Bft) 89,36 %
30.05.2017 20:58 20,3 C 20,0 C 18,3 C 66 % 0 lf 1015,7 hPa 0,0 l/m 0 min 0 min 18 W/m 18,8 km/h (3 Bft) 89,36 %
30.05.2017 21:00 20,3 C 20,0 C 18,3 C 67 % 0 lf 1015,8 hPa 0,0 l/m 0 min 0 min 16 W/m 23,0 km/h (4 Bft) 91,30 %
30.05.2017 21:02 20,3 C 20,0 C 18,3 C 67 % 0 lf 1015,9 hPa 0,0 l/m 0 min 0 min 14 W/m 18,8 km/h (3 Bft) 89,36 %
30.05.2017 21:04 20,2 C 20,0 C 18,3 C 67 % 0 lf 1015,9 hPa 0,0 l/m 0 min 0 min 13 W/m 16,7 km/h (3 Bft) 91,49 %
30.05.2017 21:06 20,2 C 20,0 C 18,3 C 67 % 0 lf 1015,9 hPa 0,0 l/m 0 min 0 min 12 W/m 20,9 km/h (4 Bft) 87,23 %
30.05.2017 21:08 20,2 C 20,0 C 18,3 C 67 % 0 lf 1015,9 hPa 0,0 l/m 0 min 0 min 12 W/m 16,7 km/h (3 Bft) 91,49 %
30.05.2017 21:10 20,2 C 20,0 C 18,3 C 68 % 0 lf 1015,9 hPa 0,0 l/m 0 min 0 min 12 W/m 20,9 km/h (4 Bft) 91,49 %
30.05.2017 21:12 20,1 C 20,0 C 18,3 C 67 % 0 lf 1016,0 hPa 0,0 l/m 0 min 0 min 11 W/m 12,6 km/h (3 Bft) 91,30 %
30.05.2017 21:14 20,1 C 20,0 C 18,3 C 68 % 0 lf 1016,0 hPa 0,0 l/m 0 min 0 min 11 W/m 12,6 km/h (3 Bft) 91,49 %
30.05.2017 21:16 20,1 C 20,0 C 18,3 C 68 % 0 lf 1016,0 hPa 0,0 l/m 0 min 0 min 9 W/m 14,6 km/h (3 Bft) 89,36 %
30.05.2017 21:18 20,1 C 20,0 C 18,3 C 68 % 0 lf 1016,0 hPa 0,0 l/m 0 min 0 min 9 W/m 16,7 km/h (3 Bft) 93,62 %
30.05.2017 21:20 20,1 C 20,0 C 18,3 C 67 % 0 lf 1016,1 hPa 0,0 l/m 0 min 0 min 7 W/m 18,8 km/h (3 Bft) 97,87 %
30.05.2017 21:22 20,0 C 20,0 C 18,3 C 67 % 0 lf 1016,1 hPa 0,0 l/m 0 min 0 min 7 W/m 29,3 km/h (5 Bft) 100,00 %
30.05.2017 21:24 20,0 C 20,0 C 18,3 C 67 % 0 lf 1016,1 hPa 0,0 l/m 0 min 0 min 7 W/m 16,7 km/h (3 Bft) 95,65 %
30.05.2017 21:26 19,9 C 20,0 C 18,3 C 67 % 0 lf 1016,1 hPa 0,0 l/m 0 min 0 min 6 W/m 16,7 km/h (3 Bft) 97,87 %
30.05.2017 21:28 19,9 C 19,4 C 18,3 C 67 % 0 lf 1016,1 hPa 0,0 l/m 0 min 0 min 5 W/m 20,9 km/h (4 Bft) 100,00 %
30.05.2017 21:30 19,9 C 19,4 C 18,3 C 67 % 0 lf 1016,2 hPa 0,0 l/m 0 min 0 min 5 W/m 16,7 km/h (3 Bft) 93,62 %
30.05.2017 21:32 19,9 C 19,4 C 18,3 C 66 % 0 lf 1016,2 hPa 0,0 l/m 0 min 0 min 5 W/m 27,2 km/h (4 Bft) 97,87 %
30.05.2017 21:34 19,8 C 19,4 C 18,3 C 66 % 0 lf 1016,2 hPa 0,0 l/m 0 min 0 min 5 W/m 29,3 km/h (5 Bft) 100,00 %
30.05.2017 21:36 19,8 C 19,4 C 18,3 C 66 % 0 lf 1016,3 hPa 0,0 l/m 0 min 0 min 4 W/m 29,3 km/h (5 Bft) 100,00 %
30.05.2017 21:38 19,8 C 19,4 C 18,3 C 66 % 0 lf 1016,3 hPa 0,0 l/m 0 min 0 min 0 W/m 18,8 km/h (3 Bft) 93,62 %
30.05.2017 21:40 19,8 C 19,4 C 18,3 C 66 % 0 lf 1016,4 hPa 0,0 l/m 0 min 0 min 0 W/m 12,6 km/h (3 Bft) 100,00 %
30.05.2017 21:42 19,7 C 19,4 C 18,3 C 66 % 0 lf 1016,4 hPa 0,0 l/m 0 min 0 min 0 W/m 16,7 km/h (3 Bft) 97,87 %
30.05.2017 21:44 19,7 C 19,4 C 18,3 C 66 % 0 lf 1016,4 hPa 0,0 l/m 0 min 0 min 0 W/m 25,1 km/h (4 Bft) 100,00 %
30.05.2017 21:46 19,7 C 19,4 C 18,3 C 66 % 0 lf 1016,4 hPa 0,0 l/m 0 min 0 min 0 W/m 20,9 km/h (4 Bft) 97,83 %
30.05.2017 21:48 19,7 C 19,4 C 18,3 C 66 % 0 lf 1016,4 hPa 0,0 l/m 0 min 0 min 0 W/m 23,0 km/h (4 Bft) 100,00 %
30.05.2017 21:50 19,7 C 19,4 C 17,8 C 66 % 0 lf 1016,4 hPa 0,0 l/m 0 min 0 min 0 W/m 16,7 km/h (3 Bft) 100,00 %
30.05.2017 21:52 19,7 C 19,4 C 17,8 C 66 % 0 lf 1016,4 hPa 0,0 l/m 0 min 0 min 0 W/m 16,7 km/h (3 Bft) 100,00 %
30.05.2017 21:54 19,6 C 19,4 C 17,8 C 66 % 0 lf 1016,5 hPa 0,0 l/m 0 min 0 min 0 W/m 16,7 km/h (3 Bft) 100,00 %
30.05.2017 21:56 19,6 C 19,4 C 17,8 C 67 % 0 lf 1016,6 hPa 0,0 l/m 0 min 0 min 0 W/m 12,6 km/h (3 Bft) 97,87 %
30.05.2017 21:58 19,6 C 19,4 C 17,8 C 67 % 0 lf 1016,7 hPa 0,0 l/m 0 min 0 min 0 W/m 14,6 km/h (3 Bft) 100,00 %
30.05.2017 22:00 19,6 C 19,4 C 17,8 C 69 % 0 lf 1016,7 hPa 0,0 l/m 0 min 0 min 0 W/m 16,7 km/h (3 Bft) 97,87 %
30.05.2017 22:02 19,6 C 18,9 C 17,8 C 69 % 0 lf 1016,8 hPa 0,0 l/m 0 min 0 min 0 W/m 12,6 km/h (3 Bft) 97,87 %
30.05.2017 22:04 19,6 C 18,9 C 17,8 C 70 % 0 lf 1016,9 hPa 0,0 l/m 0 min 0 min 0 W/m 18,8 km/h (3 Bft) 100,00 %
30.05.2017 22:06 19,6 C 18,9 C 17,8 C 70 % 0 lf 1016,9 hPa 0,0 l/m 0 min 0 min 0 W/m 25,1 km/h (4 Bft) 95,74 %
30.05.2017 22:08 19,6 C 18,9 C 17,8 C 71 % 0 lf 1017,1 hPa 0,0 l/m 0 min 0 min 0 W/m 18,8 km/h (3 Bft) 93,62 %
30.05.2017 22:10 19,5 C 18,9 C 17,8 C 71 % 0 lf 1017,0 hPa 0,0 l/m 0 min 0 min 0 W/m 16,7 km/h (3 Bft) 97,83 %
30.05.2017 22:12 19,4 C 18,9 C 17,8 C 71 % 0 lf 1017,1 hPa 0,0 l/m 0 min 0 min 0 W/m 16,7 km/h (3 Bft) 97,87 %
30.05.2017 22:14 19,4 C 18,9 C 17,8 C 71 % 0 lf 1017,1 hPa 0,0 l/m 0 min 0 min 0 W/m 18,8 km/h (3 Bft) 97,87 %
30.05.2017 22:16 19,4 C 18,9 C 17,8 C 71 % 0 lf 1017,1 hPa 0,0 l/m 0 min 0 min 0 W/m 16,7 km/h (3 Bft) 95,74 %
30.05.2017 22:18 19,4 C 18,9 C 17,8 C 71 % 0 lf 1017,1 hPa 0,0 l/m 0 min 0 min 0 W/m 12,6 km/h (3 Bft) 97,87 %
30.05.2017 22:20 19,3 C 18,9 C 17,8 C 71 % 0 lf 1017,1 hPa 0,0 l/m 0 min 0 min 0 W/m 14,6 km/h (3 Bft) 97,87 %
30.05.2017 22:22 19,3 C 18,9 C 17,2 C 71 % 0 lf 1017,2 hPa 0,0 l/m 0 min 0 min 0 W/m 12,6 km/h (3 Bft) 97,83 %
30.05.2017 22:24 19,2 C 18,9 C 17,2 C 71 % 0 lf 1017,1 hPa 0,0 l/m 0 min 0 min 0 W/m 18,8 km/h (3 Bft) 95,74 %
30.05.2017 22:26 19,2 C 18,9 C 17,2 C 71 % 0 lf 1017,1 hPa 0,0 l/m 0 min 0 min 0 W/m 12,6 km/h (3 Bft) 100,00 %
30.05.2017 22:28 19,2 C 18,9 C 17,2 C 71 % 0 lf 1017,2 hPa 0,0 l/m 0 min 0 min 0 W/m 12,6 km/h (3 Bft) 100,00 %
30.05.2017 22:30 19,2 C 18,3 C 17,2 C 71 % 0 lf 1017,3 hPa 0,0 l/m 0 min 0 min 0 W/m 12,6 km/h (3 Bft) 91,49 %
30.05.2017 22:32 19,1 C 18,3 C 17,2 C 71 % 0 lf 1017,4 hPa 0,0 l/m 0 min 0 min 0 W/m 18,8 km/h (3 Bft) 100,00 %
30.05.2017 22:34 19,1 C 18,3 C 17,2 C 71 % 0 lf 1017,4 hPa 0,0 l/m 0 min 0 min 0 W/m 12,6 km/h (3 Bft) 100,00 %
30.05.2017 22:36 19,1 C 18,3 C 17,2 C 71 % 0 lf 1017,4 hPa 0,0 l/m 0 min 0 min 0 W/m 10,5 km/h (2 Bft) 95,74 %
30.05.2017 22:38 19,0 C 18,3 C 17,2 C 71 % 0 lf 1017,4 hPa 0,0 l/m 0 min 0 min 0 W/m 10,5 km/h (2 Bft) 97,87 %
30.05.2017 22:40 19,0 C 18,3 C 17,2 C 71 % 0 lf 1017,4 hPa 0,0 l/m 0 min 0 min 0 W/m 10,5 km/h (2 Bft) 95,74 %
30.05.2017 22:42 18,9 C 18,3 C 17,2 C 71 % 0 lf 1017,3 hPa 0,0 l/m 0 min 0 min 0 W/m 12,6 km/h (3 Bft) 100,00 %
30.05.2017 22:44 18,9 C 18,3 C 17,2 C 71 % 0 lf 1017,4 hPa 0,0 l/m 0 min 0 min 0 W/m 16,7 km/h (3 Bft) 100,00 %
30.05.2017 22:46 18,9 C 18,3 C 17,2 C 71 % 0 lf 1017,3 hPa 0,0 l/m 0 min 0 min 0 W/m 12,6 km/h (3 Bft) 100,00 %
30.05.2017 22:48 18,8 C 18,3 C 17,2 C 72 % 0 lf 1017,3 hPa 0,0 l/m 0 min 0 min 0 W/m 8,4 km/h (2 Bft) 97,87 %
30.05.2017 22:50 18,8 C 18,3 C 17,2 C 72 % 0 lf 1017,3 hPa 0,0 l/m 0 min 0 min 0 W/m 10,5 km/h (2 Bft) 97,87 %
30.05.2017 22:52 18,8 C 18,3 C 17,2 C 72 % 0 lf 1017,4 hPa 0,0 l/m 0 min 0 min 0 W/m 14,6 km/h (3 Bft) 91,49 %
30.05.2017 22:54 18,8 C 18,3 C 17,2 C 72 % 0 lf 1017,3 hPa 0,0 l/m 0 min 0 min 0 W/m 10,5 km/h (2 Bft) 97,87 %
30.05.2017 22:56 18,8 C 18,3 C 17,2 C 72 % 0 lf 1017,4 hPa 0,0 l/m 0 min 0 min 0 W/m 16,7 km/h (3 Bft) 95,74 %
30.05.2017 22:58 18,7 C 18,3 C 17,2 C 72 % 0 lf 1017,4 hPa 0,0 l/m 0 min 0 min 0 W/m 12,6 km/h (3 Bft) 95,65 %
30.05.2017 23:00 18,7 C 18,3 C 17,2 C 72 % 0 lf 1017,4 hPa 0,0 l/m 0 min 0 min 0 W/m 18,8 km/h (3 Bft) 97,87 %
30.05.2017 23:02 18,7 C 18,3 C 17,2 C 72 % 0 lf 1017,4 hPa 0,0 l/m 0 min 0 min 0 W/m 10,5 km/h (2 Bft) 97,87 %
30.05.2017 23:04 18,7 C 18,3 C 17,2 C 72 % 0 lf 1017,4 hPa 0,0 l/m 0 min 0 min 0 W/m 10,5 km/h (2 Bft) 97,87 %
30.05.2017 23:06 18,7 C 18,3 C 17,2 C 72 % 0 lf 1017,5 hPa 0,0 l/m 0 min 0 min 0 W/m 16,7 km/h (3 Bft) 95,74 %
30.05.2017 23:08 18,6 C 18,3 C 17,2 C 72 % 0 lf 1017,6 hPa 0,0 l/m 0 min 0 min 0 W/m 6,3 km/h (2 Bft) 97,83 %
30.05.2017 23:10 18,6 C 18,3 C 17,2 C 72 % 0 lf 1017,6 hPa 0,0 l/m 0 min 0 min 0 W/m 12,6 km/h (3 Bft) 95,74 %
30.05.2017 23:12 18,6 C 18,3 C 17,2 C 72 % 0 lf 1017,6 hPa 0,0 l/m 0 min 0 min 0 W/m 10,5 km/h (2 Bft) 95,74 %
30.05.2017 23:14 18,6 C 18,3 C 17,2 C 72 % 0 lf 1017,6 hPa 0,0 l/m 0 min 0 min 0 W/m 12,6 km/h (3 Bft) 95,74 %
30.05.2017 23:16 18,6 C 18,3 C 17,2 C 72 % 0 lf 1017,7 hPa 0,0 l/m 0 min 0 min 0 W/m 14,6 km/h (3 Bft) 97,87 %
30.05.2017 23:18 18,6 C 18,3 C 17,2 C 72 % 0 lf 1017,7 hPa 0,0 l/m 0 min 0 min 0 W/m 14,6 km/h (3 Bft) 97,87 %
30.05.2017 23:20 18,5 C 18,3 C 17,2 C 72 % 0 lf 1017,7 hPa 0,0 l/m 0 min 0 min 0 W/m 12,6 km/h (3 Bft) 93,48 %
30.05.2017 23:22 18,5 C 18,3 C 17,2 C 72 % 0 lf 1017,7 hPa 0,0 l/m 0 min 0 min 0 W/m 10,5 km/h (2 Bft) 97,87 %
30.05.2017 23:24 18,5 C 18,3 C 17,2 C 72 % 0 lf 1017,7 hPa 0,0 l/m 0 min 0 min 0 W/m 12,6 km/h (3 Bft) 95,74 %
30.05.2017 23:26 18,5 C 18,3 C 17,2 C 72 % 0 lf 1017,7 hPa 0,0 l/m 0 min 0 min 0 W/m 16,7 km/h (3 Bft) 93,62 %
30.05.2017 23:28 18,5 C 18,3 C 17,2 C 72 % 0 lf 1017,7 hPa 0,0 l/m 0 min 0 min 0 W/m 23,0 km/h (4 Bft) 93,62 %
30.05.2017 23:30 18,4 C 18,3 C 17,2 C 72 % 0 lf 1017,7 hPa 0,0 l/m 0 min 0 min 0 W/m 14,6 km/h (3 Bft) 95,74 %
30.05.2017 23:32 18,4 C 18,3 C 17,2 C 72 % 0 lf 1017,7 hPa 0,0 l/m 0 min 0 min 0 W/m 20,9 km/h (4 Bft) 93,48 %
30.05.2017 23:34 18,4 C 18,3 C 17,2 C 72 % 0 lf 1017,7 hPa 0,0 l/m 0 min 0 min 0 W/m 14,6 km/h (3 Bft) 93,62 %
30.05.2017 23:36 18,4 C 18,3 C 16,7 C 72 % 0 lf 1017,7 hPa 0,0 l/m 0 min 0 min 0 W/m 16,7 km/h (3 Bft) 95,74 %
30.05.2017 23:38 18,4 C 18,3 C 16,7 C 72 % 0 lf 1017,7 hPa 0,0 l/m 0 min 0 min 0 W/m 16,7 km/h (3 Bft) 95,74 %
30.05.2017 23:40 18,4 C 18,3 C 16,7 C 72 % 0 lf 1017,8 hPa 0,0 l/m 0 min 0 min 0 W/m 10,5 km/h (2 Bft) 95,74 %
30.05.2017 23:42 18,3 C 18,3 C 16,7 C 72 % 0 lf 1017,8 hPa 0,0 l/m 0 min 0 min 0 W/m 12,6 km/h (3 Bft) 94,23 %
30.05.2017 23:44 18,3 C 18,3 C 16,7 C 72 % 0 lf 1017,8 hPa 0,0 l/m 0 min 0 min 0 W/m 8,4 km/h (2 Bft) 93,62 %
30.05.2017 23:46 18,3 C 17,8 C 16,7 C 72 % 0 lf 1017,8 hPa 0,0 l/m 0 min 0 min 0 W/m 8,4 km/h (2 Bft) 93,62 %
30.05.2017 23:48 18,3 C 17,8 C 16,7 C 72 % 0 lf 1017,8 hPa 0,0 l/m 0 min 0 min 0 W/m 8,4 km/h (2 Bft) 91,49 %
30.05.2017 23:50 18,3 C 17,8 C 16,7 C 72 % 0 lf 1017,8 hPa 0,0 l/m 0 min 0 min 0 W/m 12,6 km/h (3 Bft) 93,48 %
30.05.2017 23:52 18,3 C 17,8 C 16,7 C 73 % 0 lf 1017,8 hPa 0,0 l/m 0 min 0 min 0 W/m 16,7 km/h (3 Bft) 95,74 %
30.05.2017 23:54 18,3 C 17,8 C 16,7 C 73 % 0 lf 1017,8 hPa 0,0 l/m 0 min 0 min 0 W/m 10,5 km/h (2 Bft) 93,62 %
30.05.2017 23:56 18,3 C 17,8 C 16,7 C 73 % 0 lf 1017,8 hPa 0,0 l/m 0 min 0 min 0 W/m 12,6 km/h (3 Bft) 89,36 %
30.05.2017 23:58 18,2 C 17,8 C 16,7 C 73 % 0 lf 1017,8 hPa 0,0 l/m 0 min 0 min 0 W/m 8,4 km/h (2 Bft) 91,49 %
_ Min-Zeit 23:58 23:46 19:36 17:56 00:00 01:42 - - - - 02:00 04:46
Minimum _ 18,2 C 17,8 C 16,1 C 59 % 0 lf 1010,5 hPa - - - - 0,0 km/h (0 Bft) 84,78 %
_ Max-Zeit 16:00 10:38 15:58 07:48 00:00 23:40 00:00 18:10 13:00 15:36 13:38 02:08
Maximum _ 26,3 C 32,8 C 37,2 C 86 % 0 lf 1017,8 hPa 0,0 l/m 4 min 2 min 898 W/m 33,5 km/h
SW (5 Bft)
100,00 %
Durchschnitt _ 22,4 C 23,5 C 22,3 C 74 % 0 lf 1013,1 hPa #0,0 l/m #6:28 h #4 min. 279 W/m 15,4 km/h (3 Bft) 95,82 %
© 2017 W. Hausmann